| time (UTC) | temp C | wind direction | speed KPH | gust KPH | rain 1hr cm | rain 24hr cm | rain mn cm | humidity % | barometer mb |
| 20260505184202 | 25 | 245 | 0.0 | 8.0 | 0.00 | 0.00 | 0.00 | 56 | 1017.8 |
| 20260505184102 | 25 | 205 | 1.6 | 8.0 | 0.00 | 0.00 | 0.00 | 56 | 1017.9 |
| 20260505184002 | 25 | 222 | 3.2 | 8.0 | 0.00 | 0.00 | 0.00 | 56 | 1017.8 |
| 20260505183902 | 25 | 231 | 1.6 | 8.0 | 0.00 | 0.00 | 0.00 | 56 | 1017.7 |
| 20260505183702 | 25 | 181 | 4.8 | 9.7 | 0.00 | 0.00 | 0.00 | 57 | 1017.9 |
| 20260505183602 | 25 | 166 | 0.0 | 9.7 | 0.00 | 0.00 | 0.00 | 59 | 1018.0 |
| 20260505183402 | 25 | 91 | 0.0 | 9.7 | 0.00 | 0.00 | 0.00 | 56 | 1017.9 |
| 20260505183303 | 25 | 172 | 0.0 | 9.7 | 0.00 | 0.00 | 0.00 | 57 | 1017.9 |
| 20260505183202 | 25 | 242 | 0.0 | 11.3 | 0.00 | 0.00 | 0.00 | 57 | 1017.9 |
| 20260505183003 | 25 | 139 | 0.0 | 11.3 | 0.00 | 0.00 | 0.00 | 56 | 1018.0 |
| 20260505182902 | 25 | 248 | 1.6 | 11.3 | 0.00 | 0.00 | 0.00 | 56 | 1018.0 |
| 20260505182702 | 25 | 158 | 0.0 | 11.3 | 0.00 | 0.00 | 0.00 | 55 | 1018.0 |
| 20260505182602 | 25 | 68 | 1.6 | 11.3 | 0.00 | 0.00 | 0.00 | 55 | 1018.1 |
| 20260505182403 | 25 | 231 | 3.2 | 12.9 | 0.00 | 0.00 | 0.00 | 55 | 1018.2 |
| 20260505182305 | 25 | 135 | 3.2 | 12.9 | 0.00 | 0.00 | 0.00 | 57 | 1018.1 |
| 20260505182202 | 25 | 37 | 0.0 | 12.9 | 0.00 | 0.00 | 0.00 | 56 | 1018.2 |
| 20260505182102 | 25 | 157 | 0.0 | 12.9 | 0.00 | 0.00 | 0.00 | 56 | 1018.1 |
| 20260505182002 | 25 | 32 | 0.0 | 12.9 | 0.00 | 0.00 | 0.00 | 58 | 1018.1 |
| 20260505181902 | 25 | 88 | 1.6 | 12.9 | 0.00 | 0.00 | 0.00 | 57 | 1018.1 |
| 20260505181802 | 25 | 255 | 0.0 | 12.9 | 0.00 | 0.00 | 0.00 | 57 | 1018.1 |
| 20260505181702 | 25 | 250 | 0.0 | 12.9 | 0.00 | 0.00 | 0.00 | 56 | 1018.1 |
| 20260505181604 | 25 | 255 | 6.4 | 11.3 | 0.00 | 0.00 | 0.00 | 56 | 1018.1 |
| 20260505181502 | 25 | 256 | 0.0 | 9.7 | 0.00 | 0.00 | 0.00 | 59 | 1018.1 |
| 20260505181403 | 25 | 357 | 1.6 | 9.7 | 0.00 | 0.00 | 0.00 | 58 | 1018.1 |
| 20260505181302 | 25 | 293 | 0.0 | 9.7 | 0.00 | 0.00 | 0.00 | 54 | 1018.1 |
| 20260505181203 | 25 | 242 | 0.0 | 9.7 | 0.00 | 0.00 | 0.00 | 55 | 1018.1 |
| 20260505181102 | 25 | 244 | 0.0 | 9.7 | 0.00 | 0.00 | 0.00 | 55 | 1018.0 |
| 20260505181003 | 25 | 101 | 6.4 | 9.7 | 0.00 | 0.00 | 0.00 | 56 | 1018.1 |
| 20260505180902 | 25 | 231 | 1.6 | 9.7 | 0.00 | 0.00 | 0.00 | 56 | 1018.1 |
| 20260505180803 | 25 | 60 | 0.0 | 9.7 | 0.00 | 0.00 | 0.00 | 57 | 1018.1 |
| 20260505180702 | 25 | 56 | 1.6 | 9.7 | 0.00 | 0.00 | 0.00 | 57 | 1018.1 |
| 20260505180602 | 25 | 238 | 1.6 | 14.5 | 0.00 | 0.00 | 0.00 | 58 | 1018.2 |
| 20260505180502 | 25 | 224 | 1.6 | 14.5 | 0.00 | 0.00 | 0.00 | 57 | 1018.1 |
| 20260505180402 | 25 | 201 | 0.0 | 14.5 | 0.00 | 0.00 | 0.00 | 56 | 1018.1 |
| 20260505180303 | 25 | 73 | 6.4 | 14.5 | 0.00 | 0.00 | 0.00 | 57 | 1018.1 |
| 20260505180005 | 25 | 266 | 0.0 | 14.5 | 0.00 | 0.00 | 0.00 | 56 | 1018.0 |
| 20260505175802 | 25 | 146 | 9.7 | 14.5 | 0.00 | 0.00 | 0.00 | 56 | 1018.1 |
| 20260505175702 | 25 | 117 | 9.7 | 12.9 | 0.00 | 0.00 | 0.00 | 55 | 1018.1 |
| 20260505175605 | 25 | 157 | 8.0 | 12.9 | 0.00 | 0.00 | 0.00 | 56 | 1018.2 |
| 20260505175502 | 25 | 120 | 9.7 | 12.9 | 0.00 | 0.00 | 0.00 | 56 | 1018.2 |
| 20260505175403 | 25 | 111 | 9.7 | 9.7 | 0.00 | 0.00 | 0.00 | 58 | 1018.2 |
| 20260505175305 | 25 | 57 | 0.0 | 8.0 | 0.00 | 0.00 | 0.00 | 57 | 1018.2 |
| 20260505175202 | 25 | 230 | 0.0 | 8.0 | 0.00 | 0.00 | 0.00 | 56 | 1018.2 |
| 20260505175002 | 25 | 270 | 0.0 | 8.0 | 0.00 | 0.00 | 0.00 | 56 | 1018.1 |
| 20260505174903 | 25 | 37 | 3.2 | 8.0 | 0.00 | 0.00 | 0.00 | 56 | 1018.2 |
| 20260505174803 | 25 | 345 | 0.0 | 6.4 | 0.00 | 0.00 | 0.00 | 55 | 1018.1 |
| 20260505174702 | 25 | 103 | 0.0 | 4.8 | 0.00 | 0.00 | 0.00 | 55 | 1018.2 |
| 20260505174603 | 25 | 206 | 0.0 | 6.4 | 0.00 | 0.00 | 0.00 | 55 | 1018.1 |
| 20260505174402 | 25 | 15 | 0.0 | 14.5 | 0.00 | 0.00 | 0.00 | 57 | 1018.2 |
| 20260505174202 | 25 | 141 | 1.6 | 14.5 | 0.00 | 0.00 | 0.00 | 56 | 1018.1 |
| 20260505174102 | 25 | 50 | 0.0 | 14.5 | 0.00 | 0.00 | 0.00 | 57 | 1018.2 |
| 20260505174002 | 25 | 119 | 0.0 | 14.5 | 0.00 | 0.00 | 0.00 | 56 | 1018.2 |
| 20260505173902 | 25 | 129 | 4.8 | 14.5 | 0.00 | 0.00 | 0.00 | 56 | 1018.2 |
| 20260505173802 | 25 | 264 | 1.6 | 14.5 | 0.00 | 0.00 | 0.00 | 55 | 1018.2 |
| 20260505173702 | 25 | 213 | 3.2 | 14.5 | 0.00 | 0.00 | 0.00 | 54 | 1018.2 |
| 20260505173602 | 25 | 150 | 11.3 | 11.3 | 0.00 | 0.00 | 0.00 | 57 | 1018.2 |
| 20260505173502 | 25 | 233 | 0.0 | 6.4 | 0.00 | 0.00 | 0.00 | 58 | 1018.3 |
| 20260505173403 | 25 | 174 | 1.6 | 6.4 | 0.00 | 0.00 | 0.00 | 57 | 1018.3 |
| 20260505173302 | 25 | 79 | 0.0 | 6.4 | 0.00 | 0.00 | 0.00 | 58 | 1018.3 |
| 20260505173202 | 25 | 280 | 0.0 | 6.4 | 0.00 | 0.00 | 0.00 | 58 | 1018.3 |
| 20260505173102 | 25 | 115 | 0.0 | 6.4 | 0.00 | 0.00 | 0.00 | 59 | 1018.4 |
| 20260505173002 | 25 | 285 | 0.0 | 6.4 | 0.00 | 0.00 | 0.00 | 57 | 1018.3 |
| 20260505172703 | 25 | 57 | 0.0 | 6.4 | 0.00 | 0.00 | 0.00 | 56 | 1018.4 |
| 20260505172605 | 25 | 148 | 0.0 | 6.4 | 0.00 | 0.00 | 0.00 | 56 | 1018.3 |
| 20260505172403 | 25 | 225 | 0.0 | 6.4 | 0.00 | 0.00 | 0.00 | 57 | 1018.3 |
| 20260505172305 | 25 | 56 | 3.2 | 6.4 | 0.00 | 0.00 | 0.00 | 56 | 1018.3 |
| 20260505172202 | 25 | 82 | 1.6 | 6.4 | 0.00 | 0.00 | 0.00 | 56 | 1018.3 |
| 20260505172103 | 25 | 209 | 0.0 | 6.4 | 0.00 | 0.00 | 0.00 | 56 | 1018.3 |
| 20260505172002 | 25 | 221 | 0.0 | 6.4 | 0.00 | 0.00 | 0.00 | 56 | 1018.4 |
| 20260505171902 | 25 | 221 | 0.0 | 6.4 | 0.00 | 0.00 | 0.00 | 56 | 1018.4 |
| 20260505171803 | 25 | 116 | 1.6 | 8.0 | 0.00 | 0.00 | 0.00 | 55 | 1018.4 |
| 20260505171602 | 25 | 185 | 0.0 | 8.0 | 0.00 | 0.00 | 0.00 | 55 | 1018.4 |
| 20260505171503 | 25 | 286 | 0.0 | 8.0 | 0.00 | 0.00 | 0.00 | 55 | 1018.4 |
| 20260505171402 | 25 | 282 | 0.0 | 8.0 | 0.00 | 0.00 | 0.00 | 54 | 1018.5 |
| 20260505171203 | 25 | 158 | 0.0 | 8.0 | 0.00 | 0.00 | 0.00 | 56 | 1018.3 |
| 20260505171003 | 25 | 170 | 3.2 | 8.0 | 0.00 | 0.00 | 0.00 | 55 | 1018.4 |
| 20260505170902 | 25 | 53 | 0.0 | 6.4 | 0.00 | 0.00 | 0.00 | 56 | 1018.4 |
| 20260505170802 | 25 | 30 | 0.0 | 6.4 | 0.00 | 0.00 | 0.00 | 56 | 1018.4 |
| 20260505170702 | 25 | 105 | 0.0 | 8.0 | 0.00 | 0.00 | 0.00 | 54 | 1018.5 |
| 20260505170603 | 25 | 56 | 1.6 | 8.0 | 0.00 | 0.00 | 0.00 | 55 | 1018.4 |
| 20260505170502 | 25 | 321 | 1.6 | 8.0 | 0.00 | 0.00 | 0.00 | 56 | 1018.5 |
| 20260505170403 | 25 | 30 | 0.0 | 8.0 | 0.00 | 0.00 | 0.00 | 57 | 1018.5 |
| 20260505170202 | 25 | 231 | 0.0 | 8.0 | 0.00 | 0.00 | 0.00 | 57 | 1018.5 |
| 20260505170005 | 25 | 318 | 3.2 | 8.0 | 0.00 | 0.00 | 0.00 | 58 | 1018.5 |
| 20260505165902 | 25 | 253 | 3.2 | 8.0 | 0.00 | 0.00 | 0.00 | 55 | 1018.5 |
| 20260505165803 | 25 | 131 | 3.2 | 9.7 | 0.00 | 0.00 | 0.00 | 55 | 1018.5 |
| 20260505165602 | 25 | 214 | 3.2 | 12.9 | 0.00 | 0.00 | 0.00 | 55 | 1018.5 |
| 20260505165503 | 25 | 191 | 0.0 | 12.9 | 0.00 | 0.00 | 0.00 | 54 | 1018.5 |
| 20260505165402 | 25 | 200 | 4.8 | 12.9 | 0.00 | 0.00 | 0.00 | 55 | 1018.5 |
| 20260505164802 | 25 | 21 | 3.2 | 6.4 | 0.00 | 0.00 | 0.00 | 57 | 1018.5 |
| 20260505164702 | 25 | 83 | 0.0 | 6.4 | 0.00 | 0.00 | 0.00 | 57 | 1018.6 |
| 20260505164603 | 25 | 231 | 0.0 | 6.4 | 0.00 | 0.00 | 0.00 | 55 | 1018.6 |
| 20260505164502 | 25 | 200 | 0.0 | 6.4 | 0.00 | 0.00 | 0.00 | 57 | 1018.6 |
| 20260505164402 | 25 | 169 | 0.0 | 6.4 | 0.00 | 0.00 | 0.00 | 57 | 1018.6 |
| 20260505164202 | 25 | 85 | 3.2 | 4.8 | 0.00 | 0.00 | 0.00 | 55 | 1018.6 |
| 20260505164002 | 25 | 44 | 0.0 | 4.8 | 0.00 | 0.00 | 0.00 | 56 | 1018.6 |
| 20260505163702 | 25 | 82 | 0.0 | 8.0 | 0.00 | 0.00 | 0.00 | 55 | 1018.6 |
| 20260505163502 | 25 | 227 | 0.0 | 8.0 | 0.00 | 0.00 | 0.00 | 56 | 1018.6 |
| 20260505163302 | 25 | 246 | 0.0 | 8.0 | 0.00 | 0.00 | 0.00 | 57 | 1018.6 |
| 20260505163204 | 25 | 274 | 3.2 | 8.0 | 0.00 | 0.00 | 0.00 | 59 | 1018.6 |
| 20260505163102 | 25 | 226 | 0.0 | 8.0 | 0.00 | 0.00 | 0.00 | 59 | 1018.7 |
| 20260505163002 | 25 | 147 | 0.0 | 8.0 | 0.00 | 0.00 | 0.00 | 56 | 1018.7 |
| 20260505162903 | 25 | 203 | 0.0 | 8.0 | 0.00 | 0.00 | 0.00 | 55 | 1018.7 |
| 20260505162802 | 25 | 195 | 3.2 | 8.0 | 0.00 | 0.00 | 0.00 | 57 | 1018.7 |
| 20260505162702 | 25 | 58 | 0.0 | 8.0 | 0.00 | 0.00 | 0.00 | 55 | 1018.8 |
| 20260505162602 | 25 | 61 | 1.6 | 8.0 | 0.00 | 0.00 | 0.00 | 56 | 1018.7 |
| 20260505162305 | 25 | 98 | 3.2 | 8.0 | 0.00 | 0.00 | 0.00 | 56 | 1018.8 |
| 20260505162202 | 25 | 251 | 0.0 | 8.0 | 0.00 | 0.00 | 0.00 | 58 | 1018.8 |
| 20260505162102 | 25 | 248 | 0.0 | 8.0 | 0.00 | 0.00 | 0.00 | 60 | 1018.8 |
| 20260505162003 | 25 | 246 | 0.0 | 8.0 | 0.00 | 0.00 | 0.00 | 59 | 1018.8 |
| 20260505161902 | 25 | 61 | 0.0 | 8.0 | 0.00 | 0.00 | 0.00 | 57 | 1018.8 |
| 20260505161805 | 25 | 61 | 0.0 | 8.0 | 0.00 | 0.00 | 0.00 | 56 | 1018.8 |
| 20260505161702 | 25 | 262 | 0.0 | 8.0 | 0.00 | 0.00 | 0.00 | 56 | 1018.8 |
| 20260505161602 | 25 | 35 | 3.2 | 8.0 | 0.00 | 0.00 | 0.00 | 56 | 1018.8 |
| 20260505161502 | 25 | 183 | 0.0 | 4.8 | 0.00 | 0.00 | 0.00 | 56 | 1018.9 |
| 20260505161302 | 25 | 108 | 3.2 | 4.8 | 0.00 | 0.00 | 0.00 | 55 | 1018.8 |
| 20260505161102 | 25 | 193 | 0.0 | 4.8 | 0.00 | 0.00 | 0.00 | 56 | 1018.9 |
| 20260505161002 | 25 | 233 | 0.0 | 4.8 | 0.00 | 0.00 | 0.00 | 56 | 1018.9 |
| 20260505160802 | 25 | 320 | 0.0 | 6.4 | 0.00 | 0.00 | 0.00 | 56 | 1018.9 |
| 20260505160702 | 25 | 246 | 0.0 | 6.4 | 0.00 | 0.00 | 0.00 | 57 | 1019.0 |
| 20260505160602 | 24 | 86 | 1.6 | 6.4 | 0.00 | 0.00 | 0.00 | 57 | 1019.0 |
| 20260505160503 | 24 | 68 | 0.0 | 6.4 | 0.00 | 0.00 | 0.00 | 57 | 1018.9 |
| 20260505160302 | 24 | 51 | 3.2 | 6.4 | 0.00 | 0.00 | 0.00 | 56 | 1019.0 |
| 20260505160202 | 24 | 89 | 0.0 | 8.0 | 0.00 | 0.00 | 0.00 | 57 | 1019.0 |
| 20260505153302 | 24 | 137 | 1.6 | 6.4 | 0.00 | 0.00 | 0.00 | 57 | 1018.9 |
| 20260505153202 | 24 | 238 | 0.0 | 6.4 | 0.00 | 0.00 | 0.00 | 56 | 1018.8 |
| 20260505153102 | 25 | 246 | 0.0 | 6.4 | 0.00 | 0.00 | 0.00 | 56 | 1018.9 |
| 20260505153002 | 25 | 56 | 3.2 | 6.4 | 0.00 | 0.00 | 0.00 | 56 | 1018.9 |
| 20260505152902 | 25 | 246 | 1.6 | 4.8 | 0.00 | 0.00 | 0.00 | 57 | 1018.9 |
| 20260505152809 | 25 | 217 | 0.0 | 6.4 | 0.00 | 0.00 | 0.00 | 58 | 1018.8 |
| 20260505152503 | 25 | 63 | 0.0 | 6.4 | 0.00 | 0.00 | 0.00 | 57 | 1018.9 |
| 20260505152403 | 25 | 18 | 0.0 | 6.4 | 0.00 | 0.00 | 0.00 | 58 | 1018.9 |
| 20260505152304 | 25 | 84 | 1.6 | 6.4 | 0.00 | 0.00 | 0.00 | 57 | 1018.8 |
| 20260505152202 | 25 | 281 | 0.0 | 6.4 | 0.00 | 0.00 | 0.00 | 56 | 1018.9 |
| 20260505152102 | 25 | 153 | 0.0 | 6.4 | 0.00 | 0.00 | 0.00 | 55 | 1018.9 |
| 20260505151902 | 25 | 222 | 6.4 | 6.4 | 0.00 | 0.00 | 0.00 | 57 | 1018.9 |
| 20260505151802 | 25 | 241 | 0.0 | 4.8 | 0.00 | 0.00 | 0.00 | 58 | 1018.8 |
| 20260505151702 | 25 | 219 | 0.0 | 4.8 | 0.00 | 0.00 | 0.00 | 56 | 1018.8 |
| 20260505151602 | 25 | 77 | 0.0 | 4.8 | 0.00 | 0.00 | 0.00 | 58 | 1018.8 |
| 20260505151402 | 24 | 130 | 0.0 | 4.8 | 0.00 | 0.00 | 0.00 | 59 | 1018.8 |
| 20260505151302 | 24 | 172 | 1.6 | 4.8 | 0.00 | 0.00 | 0.00 | 57 | 1018.9 |
| 20260505151202 | 24 | 84 | 0.0 | 4.8 | 0.00 | 0.00 | 0.00 | 58 | 1018.9 |
| 20260505151102 | 24 | 214 | 0.0 | 4.8 | 0.00 | 0.00 | 0.00 | 58 | 1018.8 |
| 20260505151002 | 24 | 251 | 3.2 | 3.2 | 0.00 | 0.00 | 0.00 | 58 | 1018.8 |
| 20260505150804 | 24 | 109 | 0.0 | 4.8 | 0.00 | 0.00 | 0.00 | 60 | 1018.8 |
| 20260505150702 | 24 | 221 | 0.0 | 4.8 | 0.00 | 0.00 | 0.00 | 61 | 1018.8 |
| 20260505150602 | 23 | 189 | 0.0 | 4.8 | 0.00 | 0.00 | 0.00 | 61 | 1018.8 |
| 20260505150502 | 23 | 352 | 0.0 | 11.3 | 0.00 | 0.00 | 0.00 | 59 | 1018.7 |
| 20260505150402 | 23 | 89 | 0.0 | 11.3 | 0.00 | 0.00 | 0.00 | 61 | 1018.8 |
| 20260505150302 | 23 | 94 | 0.0 | 11.3 | 0.00 | 0.00 | 0.00 | 59 | 1018.8 |
| 20260505150202 | 23 | 234 | 0.0 | 11.3 | 0.00 | 0.00 | 0.00 | 59 | 1018.7 |
| 20260505140604 | 23 | 72 | 0.0 | 8.0 | 0.00 | 0.00 | 0.00 | 61 | 1018.6 |
| 20260505140502 | 23 | 210 | 0.0 | 8.0 | 0.00 | 0.00 | 0.00 | 61 | 1018.8 |
| 20260505130302 | 22 | 197 | 1.6 | 3.2 | 0.00 | 0.00 | 0.00 | 67 | 1018.5 |
| 20260505130202 | 21 | 122 | 0.0 | 4.8 | 0.00 | 0.00 | 0.00 | 67 | 1018.5 |
| 20260505125002 | 21 | 58 | 0.0 | 6.4 | 0.00 | 0.00 | 0.00 | 69 | 1018.5 |
| 20260505124902 | 21 | 95 | 0.0 | 6.4 | 0.00 | 0.00 | 0.00 | 70 | 1018.6 |
| 20260505124802 | 21 | 91 | 0.0 | 6.4 | 0.00 | 0.00 | 0.00 | 69 | 1018.6 |
| 20260505124602 | 21 | 148 | 0.0 | 3.2 | 0.00 | 0.00 | 0.00 | 71 | 1018.5 |
| 20260505124502 | 21 | 65 | 0.0 | 3.2 | 0.00 | 0.00 | 0.00 | 73 | 1018.5 |
| 20260505124402 | 21 | 129 | 0.0 | 3.2 | 0.00 | 0.00 | 0.00 | 74 | 1018.5 |
| 20260505124302 | 21 | 129 | 0.0 | 3.2 | 0.00 | 0.00 | 0.00 | 74 | 1018.6 |
| 20260505124202 | 21 | 129 | 0.0 | 3.2 | 0.00 | 0.00 | 0.00 | 74 | 1018.5 |
| 20260505124102 | 21 | 129 | 0.0 | 3.2 | 0.00 | 0.00 | 0.00 | 74 | 1018.4 |
| 20260505123705 | 21 | 122 | 1.6 | 3.2 | 0.00 | 0.00 | 0.00 | 74 | 1018.4 |
| 20260505123502 | 21 | 101 | 0.0 | 9.7 | 0.00 | 0.00 | 0.00 | 74 | 1018.4 |
| 20260505123402 | 21 | 101 | 0.0 | 9.7 | 0.00 | 0.00 | 0.00 | 75 | 1018.4 |
| 20260505123302 | 20 | 101 | 0.0 | 9.7 | 0.00 | 0.00 | 0.00 | 75 | 1018.4 |
| 20260505123202 | 20 | 84 | 0.0 | 9.7 | 0.00 | 0.00 | 0.00 | 76 | 1018.4 |
| 20260505123102 | 20 | 198 | 0.0 | 9.7 | 0.00 | 0.00 | 0.00 | 76 | 1018.4 |
| 20260505123002 | 20 | 185 | 0.0 | 9.7 | 0.00 | 0.00 | 0.00 | 76 | 1018.4 |
| 20260505122902 | 20 | 185 | 0.0 | 9.7 | 0.00 | 0.00 | 0.00 | 76 | 1018.3 |
| 20260505122805 | 20 | 148 | 0.0 | 9.7 | 0.00 | 0.00 | 0.00 | 77 | 1018.3 |
| 20260505122502 | 20 | 131 | 0.0 | 3.2 | 0.00 | 0.00 | 0.00 | 80 | 1018.3 |
| 20260505122404 | 20 | 131 | 0.0 | 3.2 | 0.00 | 0.00 | 0.00 | 80 | 1018.3 |
| 20260505122305 | 20 | 131 | 0.0 | 3.2 | 0.00 | 0.00 | 0.00 | 81 | 1018.3 |
| 20260505122202 | 19 | 131 | 0.0 | 3.2 | 0.00 | 0.00 | 0.00 | 82 | 1018.3 |
| 20260505122103 | 19 | 131 | 0.0 | 3.2 | 0.00 | 0.00 | 0.00 | 82 | 1018.4 |
| 20260505122002 | 19 | 143 | 0.0 | 3.2 | 0.00 | 0.00 | 0.00 | 83 | 1018.3 |
| 20260505121902 | 19 | 108 | 0.0 | 3.2 | 0.00 | 0.00 | 0.00 | 83 | 1018.4 |
| 20260505121802 | 18 | 108 | 0.0 | 3.2 | 0.00 | 0.00 | 0.00 | 84 | 1018.4 |
| 20260505121702 | 18 | 115 | 0.0 | 1.6 | 0.00 | 0.00 | 0.00 | 85 | 1018.4 |
| 20260505121602 | 18 | 92 | 0.0 | 1.6 | 0.00 | 0.00 | 0.00 | 87 | 1018.3 |
| 20260505121502 | 18 | 105 | 0.0 | 1.6 | 0.00 | 0.00 | 0.00 | 87 | 1018.5 |
| 20260505121402 | 18 | 105 | 0.0 | 1.6 | 0.00 | 0.00 | 0.00 | 88 | 1018.3 |
| 20260505121302 | 18 | 105 | 0.0 | 1.6 | 0.00 | 0.00 | 0.00 | 89 | 1018.4 |
| 20260505121202 | 17 | 111 | 0.0 | 1.6 | 0.00 | 0.00 | 0.00 | 89 | 1018.4 |
| 20260505121102 | 17 | 111 | 0.0 | 1.6 | 0.00 | 0.00 | 0.00 | 90 | 1018.4 |
| 20260505121002 | 17 | 101 | 0.0 | 1.6 | 0.00 | 0.00 | 0.00 | 91 | 1018.4 |
| 20260505120902 | 17 | 101 | 0.0 | 1.6 | 0.00 | 0.00 | 0.00 | 91 | 1018.5 |
| 20260505120802 | 17 | 101 | 0.0 | 1.6 | 0.00 | 0.00 | 0.00 | 91 | 1018.4 |
| 20260505120702 | 17 | 101 | 0.0 | 1.6 | 0.00 | 0.00 | 0.00 | 91 | 1018.4 |
| 20260505120602 | 17 | 101 | 0.0 | 1.6 | 0.00 | 0.00 | 0.00 | 92 | 1018.4 |
| 20260505120502 | 17 | 101 | 0.0 | 1.6 | 0.00 | 0.00 | 0.00 | 92 | 1018.4 |
| 20260505120402 | 17 | 101 | 0.0 | 1.6 | 0.00 | 0.00 | 0.00 | 92 | 1018.4 |
| 20260505120202 | 16 | 98 | 0.0 | 0.0 | 0.00 | 0.00 | 0.00 | 93 | 1018.4 |
| 20260505120005 | 16 | 98 | 0.0 | 0.0 | 0.00 | 0.00 | 0.00 | 93 | 1018.4 |
| 20260505115902 | 16 | 98 | 0.0 | 0.0 | 0.00 | 0.00 | 0.00 | 93 | 1018.4 |
| 20260505115802 | 16 | 98 | 0.0 | 0.0 | 0.00 | 0.00 | 0.00 | 93 | 1018.4 |
| 20260505115602 | 16 | 98 | 0.0 | 0.0 | 0.00 | 0.00 | 0.00 | 94 | 1018.3 |
| 20260505115502 | 16 | 98 | 0.0 | 0.0 | 0.00 | 0.00 | 0.00 | 94 | 1018.4 |
| 20260505115402 | 16 | 98 | 0.0 | 0.0 | 0.00 | 0.00 | 0.00 | 94 | 1018.4 |
| 20260505115304 | 16 | 98 | 0.0 | 0.0 | 0.00 | 0.00 | 0.00 | 94 | 1018.4 |
| 20260505115202 | 15 | 98 | 0.0 | 0.0 | 0.00 | 0.00 | 0.00 | 94 | 1018.5 |
| 20260505115102 | 15 | 98 | 0.0 | 0.0 | 0.00 | 0.00 | 0.00 | 94 | 1018.3 |
| 20260505115002 | 15 | 98 | 0.0 | 0.0 | 0.00 | 0.00 | 0.00 | 94 | 1018.4 |
| 20260505114902 | 15 | 98 | 0.0 | 0.0 | 0.00 | 0.00 | 0.00 | 94 | 1018.3 |
| 20260505114704 | 15 | 98 | 0.0 | 0.0 | 0.00 | 0.00 | 0.00 | 94 | 1018.4 |
| 20260505114502 | 15 | 98 | 0.0 | 0.0 | 0.00 | 0.00 | 0.00 | 94 | 1018.2 |
| 20260505114402 | 15 | 98 | 0.0 | 0.0 | 0.00 | 0.00 | 0.00 | 94 | 1018.3 |
| 20260505114202 | 15 | 98 | 0.0 | 0.0 | 0.00 | 0.00 | 0.00 | 94 | 1018.3 |
| 20260505114102 | 15 | 98 | 0.0 | 0.0 | 0.00 | 0.00 | 0.00 | 93 | 1018.3 |
| 20260505114002 | 15 | 98 | 0.0 | 0.0 | 0.00 | 0.00 | 0.00 | 93 | 1018.2 |
| 20260505113902 | 15 | 98 | 0.0 | 0.0 | 0.00 | 0.00 | 0.00 | 93 | 1018.2 |
| 20260505113802 | 15 | 98 | 0.0 | 0.0 | 0.00 | 0.00 | 0.00 | 93 | 1018.2 |
| 20260505113702 | 14 | 98 | 0.0 | 0.0 | 0.00 | 0.00 | 0.00 | 93 | 1018.2 |
| 20260505113602 | 14 | 98 | 0.0 | 0.0 | 0.00 | 0.00 | 0.00 | 93 | 1018.2 |
| 20260505113502 | 14 | 98 | 0.0 | 0.0 | 0.00 | 0.00 | 0.00 | 93 | 1018.2 |
| 20260505113402 | 14 | 98 | 0.0 | 0.0 | 0.00 | 0.00 | 0.00 | 93 | 1018.1 |
| 20260505113302 | 14 | 98 | 0.0 | 0.0 | 0.00 | 0.00 | 0.00 | 93 | 1018.2 |
| 20260505113202 | 14 | 98 | 0.0 | 0.0 | 0.00 | 0.00 | 0.00 | 93 | 1018.2 |
| 20260505113102 | 14 | 98 | 0.0 | 0.0 | 0.00 | 0.00 | 0.00 | 93 | 1018.1 |
| 20260505113003 | 14 | 98 | 0.0 | 0.0 | 0.00 | 0.00 | 0.00 | 93 | 1018.1 |
| 20260505112902 | 13 | 98 | 0.0 | 0.0 | 0.00 | 0.00 | 0.00 | 93 | 1018.1 |
| 20260505112602 | 13 | 98 | 0.0 | 0.0 | 0.00 | 0.00 | 0.00 | 93 | 1018.0 |
| 20260505112502 | 13 | 98 | 0.0 | 0.0 | 0.00 | 0.00 | 0.00 | 93 | 1018.0 |
| 20260505112402 | 13 | 98 | 0.0 | 0.0 | 0.00 | 0.00 | 0.00 | 93 | 1018.0 |
| 20260505112305 | 13 | 98 | 0.0 | 0.0 | 0.00 | 0.00 | 0.00 | 93 | 1018.0 |
| 20260505112102 | 13 | 98 | 0.0 | 0.0 | 0.00 | 0.00 | 0.00 | 93 | 1018.0 |
| 20260505112002 | 13 | 98 | 0.0 | 0.0 | 0.00 | 0.00 | 0.00 | 93 | 1018.0 |
| 20260505111905 | 13 | 98 | 0.0 | 0.0 | 0.00 | 0.00 | 0.00 | 93 | 1017.9 |
| 20260505111802 | 13 | 98 | 0.0 | 0.0 | 0.00 | 0.00 | 0.00 | 93 | 1017.9 |
| 20260505111703 | 13 | 98 | 0.0 | 0.0 | 0.00 | 0.00 | 0.00 | 93 | 1017.9 |
| 20260505111502 | 13 | 98 | 0.0 | 0.0 | 0.00 | 0.00 | 0.00 | 93 | 1017.8 |
| 20260505111402 | 13 | 98 | 0.0 | 0.0 | 0.00 | 0.00 | 0.00 | 93 | 1017.8 |
| 20260505111302 | 13 | 98 | 0.0 | 0.0 | 0.00 | 0.00 | 0.00 | 93 | 1017.8 |
| 20260505111102 | 13 | 98 | 0.0 | 0.0 | 0.00 | 0.00 | 0.00 | 93 | 1017.8 |
| 20260505111002 | 13 | 98 | 0.0 | 0.0 | 0.00 | 0.00 | 0.00 | 93 | 1017.7 |
| 20260505110902 | 13 | 98 | 0.0 | 0.0 | 0.00 | 0.00 | 0.00 | 93 | 1017.8 |
| 20260505110802 | 13 | 98 | 0.0 | 0.0 | 0.00 | 0.00 | 0.00 | 93 | 1017.7 |
| 20260505110702 | 13 | 98 | 0.0 | 0.0 | 0.00 | 0.00 | 0.00 | 93 | 1017.7 |
| 20260505110602 | 13 | 98 | 0.0 | 0.0 | 0.00 | 0.00 | 0.00 | 93 | 1017.6 |
| 20260505110402 | 13 | 98 | 0.0 | 0.0 | 0.00 | 0.00 | 0.00 | 93 | 1017.6 |
| 20260505110302 | 13 | 98 | 0.0 | 0.0 | 0.00 | 0.00 | 0.00 | 93 | 1017.6 |
| 20260505102202 | 13 | 98 | 0.0 | 0.0 | 0.00 | 0.00 | 0.00 | 92 | 1017.0 |
| 20260505102102 | 13 | 98 | 0.0 | 0.0 | 0.00 | 0.00 | 0.00 | 92 | 1016.9 |
| 20260505102002 | 13 | 98 | 0.0 | 0.0 | 0.00 | 0.00 | 0.00 | 92 | 1016.9 |
| 20260505101902 | 13 | 98 | 0.0 | 0.0 | 0.00 | 0.00 | 0.00 | 92 | 1016.9 |
| 20260505101802 | 13 | 98 | 0.0 | 0.0 | 0.00 | 0.00 | 0.00 | 92 | 1016.9 |
| 20260505101702 | 13 | 98 | 0.0 | 0.0 | 0.00 | 0.00 | 0.00 | 92 | 1017.0 |
| 20260505101602 | 13 | 98 | 0.0 | 0.0 | 0.00 | 0.00 | 0.00 | 92 | 1017.0 |
| 20260505101502 | 13 | 98 | 0.0 | 0.0 | 0.00 | 0.00 | 0.00 | 92 | 1016.9 |
| 20260505101403 | 13 | 98 | 0.0 | 0.0 | 0.00 | 0.00 | 0.00 | 92 | 1016.8 |
| 20260505101302 | 13 | 98 | 0.0 | 0.0 | 0.00 | 0.00 | 0.00 | 92 | 1016.9 |
| 20260505101002 | 13 | 98 | 0.0 | 0.0 | 0.00 | 0.00 | 0.00 | 92 | 1016.8 |
| 20260505100902 | 13 | 98 | 0.0 | 0.0 | 0.00 | 0.00 | 0.00 | 92 | 1016.8 |
| 20260505100802 | 13 | 98 | 0.0 | 0.0 | 0.00 | 0.00 | 0.00 | 92 | 1016.9 |
| 20260505100702 | 13 | 98 | 0.0 | 0.0 | 0.00 | 0.00 | 0.00 | 92 | 1016.7 |
| 20260505100602 | 13 | 98 | 0.0 | 0.0 | 0.00 | 0.00 | 0.00 | 92 | 1016.8 |
| 20260505100502 | 13 | 98 | 0.0 | 0.0 | 0.00 | 0.00 | 0.00 | 92 | 1016.8 |
| 20260505100402 | 13 | 98 | 0.0 | 0.0 | 0.00 | 0.00 | 0.00 | 91 | 1016.9 |
| 20260505100302 | 13 | 98 | 0.0 | 0.0 | 0.00 | 0.00 | 0.00 | 91 | 1016.8 |
| 20260505100202 | 13 | 98 | 0.0 | 0.0 | 0.00 | 0.00 | 0.00 | 91 | 1016.9 |
| 20260505095902 | 13 | 98 | 0.0 | 0.0 | 0.00 | 0.00 | 0.00 | 91 | 1016.9 |
| 20260505095702 | 13 | 98 | 0.0 | 0.0 | 0.00 | 0.00 | 0.00 | 91 | 1016.8 |
| 20260505095602 | 13 | 98 | 0.0 | 0.0 | 0.00 | 0.00 | 0.00 | 91 | 1016.8 |
| 20260505095502 | 13 | 98 | 0.0 | 0.0 | 0.00 | 0.00 | 0.00 | 91 | 1016.9 |
| 20260505095402 | 13 | 98 | 0.0 | 0.0 | 0.00 | 0.00 | 0.00 | 91 | 1016.8 |
| 20260505095304 | 13 | 98 | 0.0 | 0.0 | 0.00 | 0.00 | 0.00 | 91 | 1016.8 |
| 20260505095202 | 13 | 98 | 0.0 | 0.0 | 0.00 | 0.00 | 0.00 | 91 | 1016.9 |
| 20260505095102 | 13 | 98 | 0.0 | 0.0 | 0.00 | 0.00 | 0.00 | 91 | 1016.8 |
| 20260505095002 | 13 | 98 | 0.0 | 0.0 | 0.00 | 0.00 | 0.00 | 91 | 1016.8 |
| 20260505094902 | 13 | 98 | 0.0 | 0.0 | 0.00 | 0.00 | 0.00 | 91 | 1016.8 |
| 20260505094802 | 13 | 98 | 0.0 | 0.0 | 0.00 | 0.00 | 0.00 | 91 | 1016.7 |
| 20260505094602 | 13 | 98 | 0.0 | 0.0 | 0.00 | 0.00 | 0.00 | 91 | 1016.8 |
| 20260505094504 | 13 | 98 | 0.0 | 0.0 | 0.00 | 0.00 | 0.00 | 91 | 1016.7 |
| 20260505094402 | 13 | 98 | 0.0 | 0.0 | 0.00 | 0.00 | 0.00 | 91 | 1016.7 |
| 20260505094302 | 13 | 98 | 0.0 | 0.0 | 0.00 | 0.00 | 0.00 | 91 | 1016.7 |
| 20260505094202 | 13 | 98 | 0.0 | 0.0 | 0.00 | 0.00 | 0.00 | 91 | 1016.8 |
| 20260505094102 | 13 | 98 | 0.0 | 0.0 | 0.00 | 0.00 | 0.00 | 91 | 1016.7 |
| 20260505094002 | 13 | 98 | 0.0 | 0.0 | 0.00 | 0.00 | 0.00 | 91 | 1016.7 |
| 20260505093902 | 13 | 98 | 0.0 | 0.0 | 0.00 | 0.00 | 0.00 | 91 | 1016.8 |
| 20260505093702 | 13 | 98 | 0.0 | 0.0 | 0.00 | 0.00 | 0.00 | 91 | 1016.7 |
| 20260505093602 | 13 | 98 | 0.0 | 0.0 | 0.00 | 0.00 | 0.00 | 91 | 1016.7 |
| 20260505093502 | 13 | 98 | 0.0 | 0.0 | 0.00 | 0.00 | 0.00 | 91 | 1016.7 |
| 20260505093402 | 13 | 98 | 0.0 | 0.0 | 0.00 | 0.00 | 0.00 | 91 | 1016.7 |
| 20260505093304 | 13 | 98 | 0.0 | 0.0 | 0.00 | 0.00 | 0.00 | 91 | 1016.8 |
| 20260505093202 | 13 | 98 | 0.0 | 0.0 | 0.00 | 0.00 | 0.00 | 91 | 1016.7 |
| 20260505093102 | 13 | 98 | 0.0 | 0.0 | 0.00 | 0.00 | 0.00 | 91 | 1016.7 |
| 20260505093002 | 14 | 98 | 0.0 | 0.0 | 0.00 | 0.00 | 0.00 | 91 | 1016.7 |
| 20260505092905 | 14 | 98 | 0.0 | 0.0 | 0.00 | 0.00 | 0.00 | 91 | 1016.7 |
| 20260505092802 | 14 | 98 | 0.0 | 0.0 | 0.00 | 0.00 | 0.00 | 91 | 1016.7 |
| 20260505092702 | 14 | 98 | 0.0 | 0.0 | 0.00 | 0.00 | 0.00 | 91 | 1016.7 |
| 20260505092502 | 14 | 98 | 0.0 | 0.0 | 0.00 | 0.00 | 0.00 | 90 | 1016.6 |
| 20260505092402 | 14 | 98 | 0.0 | 0.0 | 0.00 | 0.00 | 0.00 | 90 | 1016.6 |
| 20260505092304 | 14 | 98 | 0.0 | 0.0 | 0.00 | 0.00 | 0.00 | 90 | 1016.7 |
| 20260505092102 | 14 | 98 | 0.0 | 0.0 | 0.00 | 0.00 | 0.00 | 90 | 1016.6 |
| 20260505091902 | 14 | 98 | 0.0 | 0.0 | 0.00 | 0.00 | 0.00 | 90 | 1016.5 |
| 20260505091702 | 14 | 98 | 0.0 | 0.0 | 0.00 | 0.00 | 0.00 | 90 | 1016.4 |
| 20260505091502 | 14 | 98 | 0.0 | 0.0 | 0.00 | 0.00 | 0.00 | 90 | 1016.5 |
| 20260505091402 | 14 | 98 | 0.0 | 0.0 | 0.00 | 0.00 | 0.00 | 90 | 1016.5 |
| 20260505091302 | 14 | 98 | 0.0 | 0.0 | 0.00 | 0.00 | 0.00 | 90 | 1016.4 |
| 20260505091202 | 14 | 98 | 0.0 | 0.0 | 0.00 | 0.00 | 0.00 | 90 | 1016.5 |
| 20260505091102 | 14 | 98 | 0.0 | 0.0 | 0.00 | 0.00 | 0.00 | 90 | 1016.5 |
| 20260505091002 | 14 | 98 | 0.0 | 0.0 | 0.00 | 0.00 | 0.00 | 90 | 1016.5 |
| 20260505090902 | 14 | 98 | 0.0 | 0.0 | 0.00 | 0.00 | 0.00 | 90 | 1016.5 |
| 20260505090802 | 14 | 98 | 0.0 | 0.0 | 0.00 | 0.00 | 0.00 | 90 | 1016.4 |
| 20260505090702 | 14 | 98 | 0.0 | 0.0 | 0.00 | 0.00 | 0.00 | 89 | 1016.5 |
| 20260505090502 | 14 | 98 | 0.0 | 0.0 | 0.00 | 0.00 | 0.00 | 89 | 1016.4 |
| 20260505090402 | 14 | 98 | 0.0 | 0.0 | 0.00 | 0.00 | 0.00 | 89 | 1016.5 |
| 20260505090202 | 14 | 98 | 0.0 | 0.0 | 0.00 | 0.00 | 0.00 | 89 | 1016.4 |
| 20260505085902 | 14 | 98 | 0.0 | 0.0 | 0.00 | 0.00 | 0.00 | 89 | 1016.4 |
| 20260505085802 | 14 | 98 | 0.0 | 0.0 | 0.00 | 0.00 | 0.00 | 89 | 1016.5 |
| 20260505085602 | 14 | 98 | 0.0 | 0.0 | 0.00 | 0.00 | 0.00 | 89 | 1016.5 |
| 20260505085502 | 14 | 98 | 0.0 | 0.0 | 0.00 | 0.00 | 0.00 | 89 | 1016.4 |
| 20260505085402 | 14 | 98 | 0.0 | 0.0 | 0.00 | 0.00 | 0.00 | 88 | 1016.4 |
| 20260505085202 | 14 | 98 | 0.0 | 0.0 | 0.00 | 0.00 | 0.00 | 88 | 1016.5 |
| 20260505084802 | 15 | 98 | 0.0 | 0.0 | 0.00 | 0.00 | 0.00 | 88 | 1016.4 |
| 20260505084702 | 15 | 98 | 0.0 | 0.0 | 0.00 | 0.00 | 0.00 | 88 | 1016.4 |
| 20260505084602 | 15 | 98 | 0.0 | 0.0 | 0.00 | 0.00 | 0.00 | 88 | 1016.4 |
| 20260505084502 | 15 | 98 | 0.0 | 0.0 | 0.00 | 0.00 | 0.00 | 88 | 1016.5 |
| 20260505084402 | 15 | 98 | 0.0 | 0.0 | 0.00 | 0.00 | 0.00 | 88 | 1016.4 |
| 20260505084302 | 15 | 98 | 0.0 | 0.0 | 0.00 | 0.00 | 0.00 | 88 | 1016.3 |
| 20260505084202 | 15 | 98 | 0.0 | 0.0 | 0.00 | 0.00 | 0.00 | 88 | 1016.4 |
| 20260505084102 | 15 | 98 | 0.0 | 0.0 | 0.00 | 0.00 | 0.00 | 88 | 1016.4 |
| 20260505084002 | 15 | 98 | 0.0 | 0.0 | 0.00 | 0.00 | 0.00 | 87 | 1016.4 |
| 20260505083902 | 15 | 98 | 0.0 | 0.0 | 0.00 | 0.00 | 0.00 | 87 | 1016.4 |
| 20260505083702 | 15 | 98 | 0.0 | 0.0 | 0.00 | 0.00 | 0.00 | 87 | 1016.4 |
| 20260505083506 | 15 | 98 | 0.0 | 0.0 | 0.00 | 0.00 | 0.00 | 87 | 1016.4 |
| 20260505083302 | 15 | 98 | 0.0 | 0.0 | 0.00 | 0.00 | 0.00 | 86 | 1016.4 |
| 20260505083102 | 15 | 98 | 0.0 | 0.0 | 0.00 | 0.00 | 0.00 | 86 | 1016.4 |
| 20260505083002 | 15 | 98 | 0.0 | 0.0 | 0.00 | 0.00 | 0.00 | 86 | 1016.4 |
| 20260505082902 | 15 | 98 | 0.0 | 0.0 | 0.00 | 0.00 | 0.00 | 86 | 1016.4 |
| 20260505082802 | 15 | 98 | 0.0 | 0.0 | 0.00 | 0.00 | 0.00 | 86 | 1016.4 |
| 20260505082702 | 15 | 98 | 0.0 | 0.0 | 0.00 | 0.00 | 0.00 | 86 | 1016.4 |
| 20260505082605 | 15 | 98 | 0.0 | 0.0 | 0.00 | 0.00 | 0.00 | 86 | 1016.4 |
| 20260505082502 | 15 | 98 | 0.0 | 0.0 | 0.00 | 0.00 | 0.00 | 85 | 1016.3 |
| 20260505082402 | 15 | 98 | 0.0 | 0.0 | 0.00 | 0.00 | 0.00 | 85 | 1016.4 |
| 20260505082202 | 15 | 98 | 0.0 | 0.0 | 0.00 | 0.00 | 0.00 | 85 | 1016.3 |
| 20260505082002 | 15 | 98 | 0.0 | 0.0 | 0.00 | 0.00 | 0.00 | 85 | 1016.3 |
| 20260505081902 | 15 | 98 | 0.0 | 0.0 | 0.00 | 0.00 | 0.00 | 84 | 1016.4 |
| 20260505081802 | 16 | 98 | 0.0 | 0.0 | 0.00 | 0.00 | 0.00 | 84 | 1016.4 |
| 20260505081702 | 16 | 98 | 0.0 | 0.0 | 0.00 | 0.00 | 0.00 | 84 | 1016.4 |
| 20260505081602 | 16 | 98 | 0.0 | 0.0 | 0.00 | 0.00 | 0.00 | 84 | 1016.4 |
| 20260505081502 | 16 | 98 | 0.0 | 0.0 | 0.00 | 0.00 | 0.00 | 84 | 1016.3 |
| 20260505081402 | 16 | 98 | 0.0 | 0.0 | 0.00 | 0.00 | 0.00 | 84 | 1016.4 |
| 20260505081302 | 16 | 98 | 0.0 | 0.0 | 0.00 | 0.00 | 0.00 | 83 | 1016.3 |
| 20260505081202 | 16 | 98 | 0.0 | 0.0 | 0.00 | 0.00 | 0.00 | 83 | 1016.3 |
| 20260505081102 | 16 | 98 | 0.0 | 0.0 | 0.00 | 0.00 | 0.00 | 83 | 1016.3 |
| 20260505081002 | 16 | 98 | 0.0 | 1.6 | 0.00 | 0.00 | 0.00 | 83 | 1016.3 |
| 20260505080902 | 16 | 98 | 0.0 | 1.6 | 0.00 | 0.00 | 0.00 | 83 | 1016.3 |
| 20260505080802 | 16 | 98 | 0.0 | 1.6 | 0.00 | 0.00 | 0.00 | 82 | 1016.3 |
| 20260505080502 | 16 | 98 | 0.0 | 1.6 | 0.00 | 0.00 | 0.00 | 82 | 1016.2 |
| 20260505080302 | 17 | 98 | 0.0 | 1.6 | 0.00 | 0.00 | 0.00 | 82 | 1016.3 |
| 20260505080202 | 17 | 98 | 0.0 | 1.6 | 0.00 | 0.00 | 0.00 | 81 | 1016.4 |
| 20260505080004 | 17 | 100 | 0.0 | 1.6 | 0.00 | 0.00 | 0.00 | 82 | 1016.4 |
| 20260505075902 | 17 | 101 | 0.0 | 1.6 | 0.00 | 0.00 | 0.00 | 82 | 1016.3 |
| 20260505075802 | 17 | 101 | 0.0 | 1.6 | 0.00 | 0.00 | 0.00 | 82 | 1016.4 |
| 20260505075602 | 17 | 101 | 0.0 | 1.6 | 0.00 | 0.00 | 0.00 | 82 | 1016.2 |
| 20260505075502 | 17 | 101 | 0.0 | 3.2 | 0.00 | 0.00 | 0.00 | 82 | 1016.3 |
| 20260505075402 | 17 | 101 | 0.0 | 3.2 | 0.00 | 0.00 | 0.00 | 82 | 1016.3 |
| 20260505075304 | 17 | 102 | 0.0 | 3.2 | 0.00 | 0.00 | 0.00 | 82 | 1016.3 |
| 20260505075202 | 17 | 102 | 0.0 | 3.2 | 0.00 | 0.00 | 0.00 | 82 | 1016.3 |
| 20260505075102 | 17 | 158 | 0.0 | 3.2 | 0.00 | 0.00 | 0.00 | 82 | 1016.3 |
| 20260505075002 | 17 | 158 | 0.0 | 3.2 | 0.00 | 0.00 | 0.00 | 82 | 1016.3 |
| 20260505074902 | 17 | 158 | 0.0 | 3.2 | 0.00 | 0.00 | 0.00 | 82 | 1016.3 |
| 20260505074802 | 17 | 158 | 0.0 | 3.2 | 0.00 | 0.00 | 0.00 | 82 | 1016.3 |
| 20260505074602 | 17 | 97 | 0.0 | 1.6 | 0.00 | 0.00 | 0.00 | 81 | 1016.3 |
| 20260505074502 | 17 | 148 | 0.0 | 1.6 | 0.00 | 0.00 | 0.00 | 81 | 1016.3 |
| 20260505074302 | 17 | 150 | 0.0 | 1.6 | 0.00 | 0.00 | 0.00 | 81 | 1016.2 |
| 20260505074102 | 17 | 159 | 0.0 | 1.6 | 0.00 | 0.00 | 0.00 | 80 | 1016.3 |
| 20260505074004 | 17 | 159 | 0.0 | 1.6 | 0.00 | 0.00 | 0.00 | 80 | 1016.3 |
| 20260505073902 | 17 | 159 | 0.0 | 1.6 | 0.00 | 0.00 | 0.00 | 80 | 1016.3 |
| 20260505073802 | 17 | 159 | 0.0 | 1.6 | 0.00 | 0.00 | 0.00 | 80 | 1016.3 |
| 20260505073702 | 17 | 160 | 0.0 | 1.6 | 0.00 | 0.00 | 0.00 | 80 | 1016.3 |
| 20260505073602 | 17 | 155 | 0.0 | 1.6 | 0.00 | 0.00 | 0.00 | 80 | 1016.3 |
| 20260505073402 | 17 | 162 | 0.0 | 3.2 | 0.00 | 0.00 | 0.00 | 80 | 1016.3 |
| 20260505073305 | 17 | 155 | 0.0 | 3.2 | 0.00 | 0.00 | 0.00 | 79 | 1016.3 |
| 20260505073203 | 17 | 117 | 0.0 | 3.2 | 0.00 | 0.00 | 0.00 | 79 | 1016.3 |
| 20260505073102 | 17 | 113 | 0.0 | 3.2 | 0.00 | 0.00 | 0.00 | 79 | 1016.3 |
| 20260505073002 | 17 | 113 | 0.0 | 3.2 | 0.00 | 0.00 | 0.00 | 79 | 1016.3 |
| 20260505072802 | 17 | 157 | 0.0 | 3.2 | 0.00 | 0.00 | 0.00 | 79 | 1016.4 |
| 20260505072702 | 17 | 141 | 0.0 | 3.2 | 0.00 | 0.00 | 0.00 | 79 | 1016.3 |
| 20260505072602 | 17 | 141 | 0.0 | 3.2 | 0.00 | 0.00 | 0.00 | 79 | 1016.3 |
| 20260505072502 | 17 | 102 | 0.0 | 1.6 | 0.00 | 0.00 | 0.00 | 79 | 1016.4 |
| 20260505072402 | 17 | 160 | 0.0 | 1.6 | 0.00 | 0.00 | 0.00 | 79 | 1016.3 |
| 20260505072304 | 17 | 143 | 0.0 | 1.6 | 0.00 | 0.00 | 0.00 | 79 | 1016.4 |
| 20260505072202 | 17 | 140 | 0.0 | 1.6 | 0.00 | 0.00 | 0.00 | 79 | 1016.3 |
| 20260505072102 | 17 | 97 | 0.0 | 1.6 | 0.00 | 0.00 | 0.00 | 79 | 1016.4 |
| 20260505072002 | 17 | 161 | 0.0 | 1.6 | 0.00 | 0.00 | 0.00 | 79 | 1016.3 |
| 20260505071802 | 17 | 122 | 0.0 | 1.6 | 0.00 | 0.00 | 0.00 | 79 | 1016.4 |
| 20260505071702 | 17 | 165 | 0.0 | 1.6 | 0.00 | 0.00 | 0.00 | 79 | 1016.5 |
| 20260505071602 | 17 | 163 | 0.0 | 1.6 | 0.00 | 0.00 | 0.00 | 79 | 1016.4 |
| 20260505071502 | 17 | 163 | 0.0 | 1.6 | 0.00 | 0.00 | 0.00 | 79 | 1016.4 |
| 20260505071402 | 17 | 138 | 0.0 | 1.6 | 0.00 | 0.00 | 0.00 | 79 | 1016.4 |
| 20260505071302 | 17 | 134 | 0.0 | 1.6 | 0.00 | 0.00 | 0.00 | 79 | 1016.4 |
| 20260505071202 | 17 | 115 | 0.0 | 1.6 | 0.00 | 0.00 | 0.00 | 79 | 1016.4 |
| 20260505071103 | 17 | 115 | 0.0 | 1.6 | 0.00 | 0.00 | 0.00 | 79 | 1016.4 |
| 20260505071002 | 17 | 115 | 0.0 | 1.6 | 0.00 | 0.00 | 0.00 | 79 | 1016.4 |
| 20260505070902 | 17 | 113 | 0.0 | 1.6 | 0.00 | 0.00 | 0.00 | 79 | 1016.4 |
| 20260505070802 | 17 | 112 | 0.0 | 1.6 | 0.00 | 0.00 | 0.00 | 79 | 1016.4 |
| 20260505070702 | 17 | 112 | 0.0 | 1.6 | 0.00 | 0.00 | 0.00 | 79 | 1016.3 |
| 20260505070602 | 17 | 142 | 0.0 | 1.6 | 0.00 | 0.00 | 0.00 | 79 | 1016.4 |
| 20260505070502 | 17 | 104 | 0.0 | 1.6 | 0.00 | 0.00 | 0.00 | 80 | 1016.3 |
| 20260505070402 | 17 | 158 | 0.0 | 1.6 | 0.00 | 0.00 | 0.00 | 79 | 1016.4 |
| 20260505070302 | 17 | 51 | 0.0 | 1.6 | 0.00 | 0.00 | 0.00 | 80 | 1016.4 |
| 20260505070202 | 17 | 145 | 0.0 | 1.6 | 0.00 | 0.00 | 0.00 | 79 | 1016.4 |
| 20260505070005 | 17 | 122 | 0.0 | 1.6 | 0.00 | 0.00 | 0.00 | 79 | 1016.3 |
| 20260505065902 | 17 | 120 | 0.0 | 3.2 | 0.00 | 0.00 | 0.00 | 79 | 1016.4 |
| 20260505065802 | 17 | 133 | 0.0 | 3.2 | 0.00 | 0.00 | 0.00 | 79 | 1016.4 |
| 20260505065702 | 17 | 133 | 0.0 | 3.2 | 0.00 | 0.00 | 0.00 | 79 | 1016.4 |
| 20260505065602 | 17 | 133 | 0.0 | 3.2 | 0.00 | 0.00 | 0.00 | 79 | 1016.4 |
| 20260505065502 | 17 | 122 | 0.0 | 3.2 | 0.00 | 0.00 | 0.00 | 79 | 1016.4 |
| 20260505065402 | 17 | 151 | 0.0 | 3.2 | 0.00 | 0.00 | 0.00 | 79 | 1016.4 |
| 20260505065303 | 17 | 141 | 0.0 | 3.2 | 0.00 | 0.00 | 0.00 | 79 | 1016.4 |
| 20260505065102 | 17 | 148 | 0.0 | 3.2 | 0.00 | 0.00 | 0.00 | 79 | 1016.4 |
| 20260505065002 | 18 | 120 | 0.0 | 1.6 | 0.00 | 0.00 | 0.00 | 78 | 1016.4 |
| 20260505064905 | 18 | 120 | 0.0 | 1.6 | 0.00 | 0.00 | 0.00 | 78 | 1016.4 |
| 20260505064802 | 18 | 120 | 0.0 | 1.6 | 0.00 | 0.00 | 0.00 | 78 | 1016.3 |
| 20260505064702 | 18 | 122 | 0.0 | 3.2 | 0.00 | 0.00 | 0.00 | 78 | 1016.3 |
| 20260505064602 | 18 | 122 | 0.0 | 3.2 | 0.00 | 0.00 | 0.00 | 78 | 1016.3 |
| 20260505064502 | 18 | 118 | 0.0 | 3.2 | 0.00 | 0.00 | 0.00 | 77 | 1016.3 |
| 20260505064302 | 18 | 137 | 0.0 | 3.2 | 0.00 | 0.00 | 0.00 | 77 | 1016.4 |
| 20260505064202 | 18 | 130 | 0.0 | 3.2 | 0.00 | 0.00 | 0.00 | 77 | 1016.4 |
| 20260505064102 | 18 | 112 | 0.0 | 3.2 | 0.00 | 0.00 | 0.00 | 77 | 1016.5 |
| 20260505064002 | 18 | 129 | 1.6 | 3.2 | 0.00 | 0.00 | 0.00 | 77 | 1016.5 |
| 20260505063903 | 18 | 106 | 0.0 | 1.6 | 0.00 | 0.00 | 0.00 | 77 | 1016.4 |
| 20260505063802 | 18 | 103 | 0.0 | 1.6 | 0.00 | 0.00 | 0.00 | 77 | 1016.5 |
| 20260505063702 | 18 | 81 | 1.6 | 1.6 | 0.00 | 0.00 | 0.00 | 77 | 1016.4 |
| 20260505063603 | 18 | 136 | 0.0 | 1.6 | 0.00 | 0.00 | 0.00 | 77 | 1016.5 |
| 20260505063502 | 18 | 136 | 0.0 | 1.6 | 0.00 | 0.00 | 0.00 | 77 | 1016.5 |
| 20260505063402 | 18 | 135 | 0.0 | 1.6 | 0.00 | 0.00 | 0.00 | 77 | 1016.6 |
| 20260505063306 | 18 | 135 | 0.0 | 1.6 | 0.00 | 0.00 | 0.00 | 77 | 1016.6 |
| 20260505063102 | 18 | 102 | 0.0 | 1.6 | 0.00 | 0.00 | 0.00 | 77 | 1016.6 |
| 20260505063002 | 18 | 101 | 0.0 | 1.6 | 0.00 | 0.00 | 0.00 | 77 | 1016.6 |
| 20260505062902 | 18 | 111 | 0.0 | 1.6 | 0.00 | 0.00 | 0.00 | 77 | 1016.6 |
| 20260505062802 | 18 | 132 | 1.6 | 1.6 | 0.00 | 0.00 | 0.00 | 77 | 1016.6 |
| 20260505062502 | 18 | 115 | 0.0 | 6.4 | 0.00 | 0.00 | 0.00 | 76 | 1016.6 |
| 20260505062304 | 18 | 114 | 0.0 | 6.4 | 0.00 | 0.00 | 0.00 | 76 | 1016.6 |
| 20260505062202 | 18 | 134 | 1.6 | 6.4 | 0.00 | 0.00 | 0.00 | 76 | 1016.6 |
| 20260505062102 | 18 | 98 | 0.0 | 6.4 | 0.00 | 0.00 | 0.00 | 76 | 1016.7 |
| 20260505062002 | 18 | 131 | 0.0 | 6.4 | 0.00 | 0.00 | 0.00 | 76 | 1016.7 |
| 20260505061902 | 18 | 131 | 0.0 | 6.4 | 0.00 | 0.00 | 0.00 | 76 | 1016.7 |
| 20260505061802 | 18 | 133 | 0.0 | 6.4 | 0.00 | 0.00 | 0.00 | 76 | 1016.8 |
| 20260505061702 | 18 | 139 | 0.0 | 1.6 | 0.00 | 0.00 | 0.00 | 76 | 1016.8 |
| 20260505061602 | 18 | 129 | 0.0 | 1.6 | 0.00 | 0.00 | 0.00 | 76 | 1016.7 |
| 20260505061502 | 18 | 127 | 0.0 | 1.6 | 0.00 | 0.00 | 0.00 | 76 | 1016.7 |
| 20260505061402 | 18 | 171 | 0.0 | 1.6 | 0.00 | 0.00 | 0.00 | 76 | 1016.8 |
| 20260505061202 | 18 | 106 | 0.0 | 4.8 | 0.00 | 0.00 | 0.00 | 76 | 1016.8 |
| 20260505061102 | 18 | 96 | 0.0 | 6.4 | 0.00 | 0.00 | 0.00 | 76 | 1016.7 |
| 20260505061002 | 18 | 165 | 0.0 | 6.4 | 0.00 | 0.00 | 0.00 | 76 | 1016.8 |
| 20260505060902 | 18 | 144 | 0.0 | 6.4 | 0.00 | 0.00 | 0.00 | 76 | 1016.9 |
| 20260505060802 | 18 | 129 | 0.0 | 6.4 | 0.00 | 0.00 | 0.00 | 76 | 1016.9 |
| 20260505060702 | 18 | 130 | 0.0 | 6.4 | 0.00 | 0.00 | 0.00 | 76 | 1016.8 |
| 20260505060602 | 18 | 117 | 1.6 | 6.4 | 0.00 | 0.00 | 0.00 | 76 | 1016.8 |
| 20260505060502 | 18 | 117 | 0.0 | 6.4 | 0.00 | 0.00 | 0.00 | 76 | 1016.9 |
| 20260505060402 | 18 | 144 | 1.6 | 6.4 | 0.00 | 0.00 | 0.00 | 76 | 1016.9 |
| 20260505060302 | 18 | 103 | 0.0 | 6.4 | 0.00 | 0.00 | 0.00 | 76 | 1016.9 |
| 20260505060202 | 18 | 158 | 0.0 | 3.2 | 0.00 | 0.00 | 0.00 | 76 | 1016.9 |
| 20260505060005 | 18 | 79 | 0.0 | 3.2 | 0.00 | 0.00 | 0.00 | 76 | 1017.0 |
| 20260505055902 | 18 | 134 | 0.0 | 3.2 | 0.00 | 0.00 | 0.00 | 76 | 1017.0 |
| 20260505055802 | 18 | 122 | 0.0 | 3.2 | 0.00 | 0.00 | 0.00 | 75 | 1017.0 |
| 20260505055702 | 18 | 168 | 0.0 | 3.2 | 0.00 | 0.00 | 0.00 | 75 | 1017.0 |
| 20260505055602 | 18 | 169 | 0.0 | 3.2 | 0.00 | 0.00 | 0.00 | 75 | 1017.0 |
| 20260505055402 | 18 | 160 | 0.0 | 3.2 | 0.00 | 0.00 | 0.00 | 75 | 1017.0 |
| 20260505055303 | 18 | 160 | 0.0 | 3.2 | 0.00 | 0.00 | 0.00 | 75 | 1017.0 |
| 20260505055202 | 18 | 125 | 0.0 | 3.2 | 0.00 | 0.00 | 0.00 | 75 | 1017.0 |
| 20260505055002 | 18 | 112 | 0.0 | 3.2 | 0.00 | 0.00 | 0.00 | 75 | 1017.1 |
| 20260505054702 | 18 | 137 | 0.0 | 3.2 | 0.00 | 0.00 | 0.00 | 75 | 1017.0 |
| 20260505054602 | 18 | 136 | 0.0 | 3.2 | 0.00 | 0.00 | 0.00 | 75 | 1017.0 |
| 20260505054502 | 18 | 68 | 0.0 | 3.2 | 0.00 | 0.00 | 0.00 | 75 | 1017.1 |
| 20260505054402 | 18 | 68 | 0.0 | 3.2 | 0.00 | 0.00 | 0.00 | 74 | 1017.1 |
| 20260505054302 | 18 | 134 | 0.0 | 3.2 | 0.00 | 0.00 | 0.00 | 74 | 1017.1 |
| 20260505054202 | 18 | 130 | 1.6 | 3.2 | 0.00 | 0.00 | 0.00 | 74 | 1017.1 |
| 20260505054102 | 18 | 50 | 0.0 | 3.2 | 0.00 | 0.00 | 0.00 | 74 | 1017.0 |
| 20260505054002 | 18 | 132 | 0.0 | 3.2 | 0.00 | 0.00 | 0.00 | 74 | 1017.2 |
| 20260505053902 | 18 | 112 | 0.0 | 3.2 | 0.00 | 0.00 | 0.00 | 74 | 1017.1 |
| 20260505053804 | 18 | 156 | 0.0 | 3.2 | 0.00 | 0.00 | 0.00 | 74 | 1017.1 |
| 20260505053702 | 18 | 159 | 0.0 | 3.2 | 0.00 | 0.00 | 0.00 | 74 | 1017.2 |
| 20260505053602 | 18 | 156 | 3.2 | 3.2 | 0.00 | 0.00 | 0.00 | 74 | 1017.3 |
| 20260505053502 | 18 | 131 | 0.0 | 6.4 | 0.00 | 0.00 | 0.00 | 74 | 1017.2 |
| 20260505053402 | 18 | 148 | 0.0 | 6.4 | 0.00 | 0.00 | 0.00 | 74 | 1017.2 |
| 20260505053302 | 18 | 91 | 0.0 | 6.4 | 0.00 | 0.00 | 0.00 | 74 | 1017.3 |
| 20260505053102 | 18 | 141 | 0.0 | 6.4 | 0.00 | 0.00 | 0.00 | 74 | 1017.2 |
| 20260505053002 | 18 | 132 | 0.0 | 6.4 | 0.00 | 0.00 | 0.00 | 74 | 1017.3 |
| 20260505052902 | 18 | 140 | 0.0 | 6.4 | 0.00 | 0.00 | 0.00 | 74 | 1017.3 |
| 20260505052802 | 18 | 141 | 0.0 | 6.4 | 0.00 | 0.00 | 0.00 | 74 | 1017.2 |
| 20260505052702 | 18 | 111 | 0.0 | 6.4 | 0.00 | 0.00 | 0.00 | 74 | 1017.2 |
| 20260505052602 | 18 | 116 | 0.0 | 3.2 | 0.00 | 0.00 | 0.00 | 74 | 1017.2 |
| 20260505052502 | 18 | 116 | 0.0 | 3.2 | 0.00 | 0.00 | 0.00 | 75 | 1017.3 |
| 20260505052402 | 18 | 167 | 0.0 | 3.2 | 0.00 | 0.00 | 0.00 | 74 | 1017.3 |
| 20260505052102 | 18 | 153 | 1.6 | 4.8 | 0.00 | 0.00 | 0.00 | 74 | 1017.4 |
| 20260505051802 | 18 | 126 | 0.0 | 4.8 | 0.00 | 0.00 | 0.00 | 74 | 1017.4 |
| 20260505051702 | 18 | 128 | 0.0 | 4.8 | 0.00 | 0.00 | 0.00 | 74 | 1017.4 |
| 20260505051502 | 18 | 75 | 0.0 | 4.8 | 0.00 | 0.00 | 0.00 | 74 | 1017.4 |
| 20260505051402 | 18 | 148 | 0.0 | 4.8 | 0.00 | 0.00 | 0.00 | 74 | 1017.4 |
| 20260505051302 | 18 | 148 | 0.0 | 4.8 | 0.00 | 0.00 | 0.00 | 74 | 1017.4 |
| 20260505051202 | 18 | 120 | 0.0 | 4.8 | 0.00 | 0.00 | 0.00 | 73 | 1017.4 |
| 20260505051102 | 18 | 136 | 0.0 | 4.8 | 0.00 | 0.00 | 0.00 | 73 | 1017.4 |
| 20260505051002 | 18 | 111 | 0.0 | 4.8 | 0.00 | 0.00 | 0.00 | 73 | 1017.4 |
| 20260505050902 | 18 | 129 | 1.6 | 4.8 | 0.00 | 0.00 | 0.00 | 73 | 1017.5 |
| 20260505050802 | 18 | 122 | 1.6 | 4.8 | 0.00 | 0.00 | 0.00 | 73 | 1017.5 |
| 20260505050702 | 18 | 133 | 0.0 | 4.8 | 0.00 | 0.00 | 0.00 | 73 | 1017.5 |
| 20260505050602 | 18 | 141 | 0.0 | 4.8 | 0.00 | 0.00 | 0.00 | 73 | 1017.4 |
| 20260505050502 | 18 | 124 | 0.0 | 4.8 | 0.00 | 0.00 | 0.00 | 73 | 1017.5 |
| 20260505050402 | 18 | 160 | 0.0 | 4.8 | 0.00 | 0.00 | 0.00 | 73 | 1017.5 |
| 20260505050302 | 18 | 122 | 0.0 | 3.2 | 0.00 | 0.00 | 0.00 | 74 | 1017.5 |
| 20260505041703 | 18 | 148 | 0.0 | 8.0 | 0.00 | 0.00 | 0.00 | 73 | 1017.5 |
| 20260505041603 | 18 | 148 | 0.0 | 8.0 | 0.00 | 0.00 | 0.00 | 73 | 1017.4 |
| 20260505041403 | 18 | 122 | 3.2 | 4.8 | 0.00 | 0.00 | 0.00 | 73 | 1017.5 |
| 20260505041204 | 18 | 126 | 0.0 | 4.8 | 0.00 | 0.00 | 0.00 | 73 | 1017.4 |
| 20260505041104 | 18 | 126 | 0.0 | 4.8 | 0.00 | 0.00 | 0.00 | 73 | 1017.4 |
| 20260505041004 | 18 | 138 | 1.6 | 4.8 | 0.00 | 0.00 | 0.00 | 73 | 1017.5 |
| 20260505040703 | 18 | 129 | 0.0 | 4.8 | 0.00 | 0.00 | 0.00 | 73 | 1017.4 |
| 20260505040603 | 18 | 138 | 0.0 | 4.8 | 0.00 | 0.00 | 0.00 | 73 | 1017.4 |
| 20260505040503 | 18 | 72 | 3.2 | 4.8 | 0.00 | 0.00 | 0.00 | 73 | 1017.4 |
| 20260505040403 | 18 | 145 | 0.0 | 3.2 | 0.00 | 0.00 | 0.00 | 73 | 1017.5 |
| 20260505040303 | 18 | 145 | 0.0 | 3.2 | 0.00 | 0.00 | 0.00 | 73 | 1017.5 |
| 20260505040203 | 18 | 149 | 0.0 | 3.2 | 0.00 | 0.00 | 0.00 | 73 | 1017.5 |
| 20260505040103 | 18 | 149 | 0.0 | 3.2 | 0.00 | 0.00 | 0.00 | 73 | 1017.5 |
| 20260505040007 | 18 | 149 | 0.0 | 3.2 | 0.00 | 0.00 | 0.00 | 73 | 1017.4 |
| 20260505035903 | 18 | 150 | 0.0 | 3.2 | 0.00 | 0.00 | 0.00 | 73 | 1017.5 |
| 20260505035803 | 18 | 125 | 0.0 | 3.2 | 0.00 | 0.00 | 0.00 | 73 | 1017.5 |
| 20260505035603 | 18 | 139 | 0.0 | 3.2 | 0.00 | 0.00 | 0.00 | 72 | 1017.4 |
| 20260505035503 | 18 | 139 | 0.0 | 3.2 | 0.00 | 0.00 | 0.00 | 72 | 1017.5 |
| 20260505035403 | 18 | 127 | 0.0 | 3.2 | 0.00 | 0.00 | 0.00 | 73 | 1017.4 |
| 20260505035304 | 18 | 107 | 1.6 | 3.2 | 0.00 | 0.00 | 0.00 | 73 | 1017.5 |
| 20260505035203 | 18 | 107 | 0.0 | 3.2 | 0.00 | 0.00 | 0.00 | 73 | 1017.4 |
| 20260505035103 | 18 | 107 | 0.0 | 3.2 | 0.00 | 0.00 | 0.00 | 73 | 1017.5 |
| 20260505035003 | 18 | 80 | 1.6 | 3.2 | 0.00 | 0.00 | 0.00 | 72 | 1017.3 |
| 20260505034805 | 18 | 57 | 0.0 | 3.2 | 0.00 | 0.00 | 0.00 | 72 | 1017.4 |
| 20260505034703 | 18 | 4 | 0.0 | 3.2 | 0.00 | 0.00 | 0.00 | 72 | 1017.5 |
| 20260505034503 | 18 | 162 | 0.0 | 3.2 | 0.00 | 0.00 | 0.00 | 72 | 1017.4 |
| 20260505034303 | 18 | 113 | 0.0 | 3.2 | 0.00 | 0.00 | 0.00 | 72 | 1017.4 |
| 20260505034203 | 18 | 106 | 1.6 | 3.2 | 0.00 | 0.00 | 0.00 | 72 | 1017.4 |
| 20260505034103 | 18 | 141 | 0.0 | 4.8 | 0.00 | 0.00 | 0.00 | 72 | 1017.4 |
| 20260505034003 | 18 | 120 | 1.6 | 4.8 | 0.00 | 0.00 | 0.00 | 72 | 1017.4 |
| 20260505033903 | 18 | 95 | 0.0 | 4.8 | 0.00 | 0.00 | 0.00 | 72 | 1017.3 |
| 20260505033703 | 18 | 106 | 0.0 | 4.8 | 0.00 | 0.00 | 0.00 | 72 | 1017.3 |
| 20260505033603 | 18 | 119 | 0.0 | 4.8 | 0.00 | 0.00 | 0.00 | 72 | 1017.3 |
| 20260505033506 | 18 | 141 | 0.0 | 6.4 | 0.00 | 0.00 | 0.00 | 72 | 1017.3 |
| 20260505033403 | 18 | 181 | 0.0 | 6.4 | 0.00 | 0.00 | 0.00 | 72 | 1017.3 |
| 20260505033305 | 18 | 82 | 1.6 | 6.4 | 0.00 | 0.00 | 0.00 | 72 | 1017.3 |
| 20260505033203 | 18 | 124 | 0.0 | 6.4 | 0.00 | 0.00 | 0.00 | 72 | 1017.3 |
| 20260505033103 | 18 | 99 | 0.0 | 6.4 | 0.00 | 0.00 | 0.00 | 72 | 1017.4 |
| 20260505032904 | 18 | 167 | 0.0 | 6.4 | 0.00 | 0.00 | 0.00 | 72 | 1017.4 |
| 20260505032803 | 18 | 206 | 0.0 | 6.4 | 0.00 | 0.00 | 0.00 | 72 | 1017.4 |
| 20260505032703 | 18 | 134 | 1.6 | 1.6 | 0.00 | 0.00 | 0.00 | 72 | 1017.3 |
| 20260505032603 | 18 | 165 | 0.0 | 4.8 | 0.00 | 0.00 | 0.00 | 72 | 1017.4 |
| 20260505032503 | 18 | 165 | 0.0 | 4.8 | 0.00 | 0.00 | 0.00 | 72 | 1017.4 |
| 20260505032304 | 18 | 167 | 0.0 | 4.8 | 0.00 | 0.00 | 0.00 | 72 | 1017.4 |
| 20260505032203 | 18 | 85 | 0.0 | 4.8 | 0.00 | 0.00 | 0.00 | 72 | 1017.4 |
| 20260505032103 | 18 | 84 | 0.0 | 4.8 | 0.00 | 0.00 | 0.00 | 72 | 1017.3 |
| 20260505031903 | 18 | 108 | 0.0 | 4.8 | 0.00 | 0.00 | 0.00 | 72 | 1017.4 |
| 20260505031803 | 18 | 108 | 0.0 | 4.8 | 0.00 | 0.00 | 0.00 | 72 | 1017.4 |
| 20260505031603 | 18 | 168 | 0.0 | 4.8 | 0.00 | 0.00 | 0.00 | 73 | 1017.4 |
| 20260505031503 | 18 | 169 | 0.0 | 4.8 | 0.00 | 0.00 | 0.00 | 73 | 1017.4 |
| 20260505031403 | 18 | 38 | 0.0 | 4.8 | 0.00 | 0.00 | 0.00 | 73 | 1017.5 |
| 20260505031303 | 18 | 22 | 0.0 | 4.8 | 0.00 | 0.00 | 0.00 | 73 | 1017.4 |
| 20260505031203 | 18 | 236 | 1.6 | 4.8 | 0.00 | 0.00 | 0.00 | 73 | 1017.5 |
| 20260505031103 | 18 | 236 | 0.0 | 4.8 | 0.00 | 0.00 | 0.00 | 72 | 1017.4 |
| 20260505030903 | 18 | 118 | 1.6 | 3.2 | 0.00 | 0.00 | 0.00 | 72 | 1017.5 |
| 20260505030703 | 18 | 98 | 0.0 | 3.2 | 0.00 | 0.00 | 0.00 | 72 | 1017.5 |
| 20260505030603 | 18 | 130 | 0.0 | 3.2 | 0.00 | 0.00 | 0.00 | 72 | 1017.5 |
| 20260505030503 | 18 | 130 | 0.0 | 3.2 | 0.00 | 0.00 | 0.00 | 72 | 1017.5 |
| 20260505030403 | 18 | 160 | 0.0 | 3.2 | 0.00 | 0.00 | 0.00 | 72 | 1017.5 |
| 20260505030204 | 18 | 86 | 0.0 | 3.2 | 0.00 | 0.00 | 0.00 | 72 | 1017.6 |
| 20260505030103 | 18 | 79 | 0.0 | 3.2 | 0.00 | 0.00 | 0.00 | 72 | 1017.5 |
| 20260505030006 | 18 | 146 | 0.0 | 3.2 | 0.00 | 0.00 | 0.00 | 72 | 1017.5 |
| 20260505025803 | 18 | 74 | 3.2 | 3.2 | 0.00 | 0.00 | 0.00 | 72 | 1017.5 |
| 20260505025603 | 18 | 99 | 3.2 | 3.2 | 0.00 | 0.00 | 0.00 | 72 | 1017.4 |
| 20260505025503 | 18 | 95 | 1.6 | 3.2 | 0.00 | 0.00 | 0.00 | 72 | 1017.5 |
| 20260505025403 | 18 | 86 | 0.0 | 3.2 | 0.00 | 0.00 | 0.00 | 72 | 1017.5 |
| 20260505025304 | 18 | 164 | 0.0 | 3.2 | 0.00 | 0.00 | 0.00 | 72 | 1017.5 |
| 20260505025203 | 18 | 118 | 1.6 | 3.2 | 0.00 | 0.00 | 0.00 | 71 | 1017.4 |
| 20260505025003 | 18 | 171 | 0.0 | 9.7 | 0.00 | 0.00 | 0.00 | 71 | 1017.5 |
| 20260505024903 | 18 | 170 | 0.0 | 9.7 | 0.00 | 0.00 | 0.00 | 71 | 1017.6 |
| 20260505024703 | 18 | 109 | 0.0 | 9.7 | 0.00 | 0.00 | 0.00 | 71 | 1017.6 |
| 20260505024603 | 18 | 109 | 0.0 | 9.7 | 0.00 | 0.00 | 0.00 | 71 | 1017.5 |
| 20260505024503 | 18 | 98 | 0.0 | 9.7 | 0.00 | 0.00 | 0.00 | 71 | 1017.6 |
| 20260505024403 | 18 | 63 | 1.6 | 9.7 | 0.00 | 0.00 | 0.00 | 71 | 1017.6 |
| 20260505024303 | 18 | 107 | 1.6 | 9.7 | 0.00 | 0.00 | 0.00 | 72 | 1017.6 |
| 20260505024203 | 18 | 90 | 0.0 | 9.7 | 0.00 | 0.00 | 0.00 | 72 | 1017.6 |
| 20260505024103 | 18 | 116 | 0.0 | 4.8 | 0.00 | 0.00 | 0.00 | 72 | 1017.7 |
| 20260505023903 | 18 | 122 | 0.0 | 4.8 | 0.00 | 0.00 | 0.00 | 72 | 1017.6 |
| 20260505023803 | 18 | 76 | 0.0 | 3.2 | 0.00 | 0.00 | 0.00 | 72 | 1017.6 |
| 20260505023703 | 18 | 117 | 0.0 | 4.8 | 0.00 | 0.00 | 0.00 | 72 | 1017.6 |
| 20260505023603 | 18 | 117 | 1.6 | 4.8 | 0.00 | 0.00 | 0.00 | 72 | 1017.7 |
| 20260505023403 | 18 | 139 | 0.0 | 4.8 | 0.00 | 0.00 | 0.00 | 72 | 1017.7 |
| 20260505023303 | 18 | 94 | 0.0 | 4.8 | 0.00 | 0.00 | 0.00 | 72 | 1017.6 |
| 20260505023203 | 18 | 217 | 0.0 | 4.8 | 0.00 | 0.00 | 0.00 | 72 | 1017.7 |
| 20260505023003 | 18 | 97 | 1.6 | 4.8 | 0.00 | 0.00 | 0.00 | 72 | 1017.6 |
| 20260505022903 | 18 | 188 | 0.0 | 4.8 | 0.00 | 0.00 | 0.00 | 71 | 1017.6 |
| 20260505022803 | 18 | 167 | 0.0 | 4.8 | 0.00 | 0.00 | 0.00 | 71 | 1017.6 |
| 20260505022703 | 18 | 169 | 0.0 | 4.8 | 0.00 | 0.00 | 0.00 | 71 | 1017.6 |
| 20260505022603 | 18 | 92 | 0.0 | 4.8 | 0.00 | 0.00 | 0.00 | 71 | 1017.6 |
| 20260505022503 | 18 | 118 | 0.0 | 6.4 | 0.00 | 0.00 | 0.00 | 71 | 1017.6 |
| 20260505022403 | 18 | 127 | 4.8 | 6.4 | 0.00 | 0.00 | 0.00 | 71 | 1017.5 |
| 20260505022203 | 18 | 124 | 0.0 | 6.4 | 0.00 | 0.00 | 0.00 | 71 | 1017.6 |
| 20260505021704 | 18 | 138 | 0.0 | 6.4 | 0.00 | 0.00 | 0.00 | 71 | 1017.6 |
| 20260505021603 | 18 | 95 | 0.0 | 1.6 | 0.00 | 0.00 | 0.00 | 71 | 1017.6 |
| 20260505021403 | 18 | 216 | 0.0 | 6.4 | 0.00 | 0.00 | 0.00 | 71 | 1017.5 |
| 20260505021305 | 18 | 131 | 0.0 | 6.4 | 0.00 | 0.00 | 0.00 | 70 | 1017.6 |
| 20260505021203 | 18 | 131 | 0.0 | 6.4 | 0.00 | 0.00 | 0.00 | 71 | 1017.6 |
| 20260505021103 | 18 | 131 | 0.0 | 6.4 | 0.00 | 0.00 | 0.00 | 70 | 1017.7 |
| 20260505021003 | 18 | 132 | 0.0 | 6.4 | 0.00 | 0.00 | 0.00 | 70 | 1017.6 |
| 20260505020903 | 18 | 132 | 0.0 | 6.4 | 0.00 | 0.00 | 0.00 | 70 | 1017.6 |
| 20260505020803 | 18 | 172 | 0.0 | 6.4 | 0.00 | 0.00 | 0.00 | 70 | 1017.6 |
| 20260505020703 | 18 | 207 | 0.0 | 6.4 | 0.00 | 0.00 | 0.00 | 70 | 1017.6 |
| 20260505020603 | 18 | 122 | 3.2 | 3.2 | 0.00 | 0.00 | 0.00 | 70 | 1017.6 |
| 20260505020503 | 18 | 188 | 0.0 | 3.2 | 0.00 | 0.00 | 0.00 | 70 | 1017.6 |
| 20260505020403 | 18 | 86 | 0.0 | 3.2 | 0.00 | 0.00 | 0.00 | 70 | 1017.6 |
| 20260505020303 | 18 | 89 | 0.0 | 3.2 | 0.00 | 0.00 | 0.00 | 70 | 1017.6 |
| 20260505020203 | 18 | 98 | 0.0 | 3.2 | 0.00 | 0.00 | 0.00 | 70 | 1017.6 |
| 20260505020103 | 18 | 107 | 0.0 | 3.2 | 0.00 | 0.00 | 0.00 | 70 | 1017.6 |
| 20260505015903 | 18 | 114 | 0.0 | 3.2 | 0.00 | 0.00 | 0.00 | 70 | 1017.5 |
| 20260505015803 | 18 | 99 | 0.0 | 3.2 | 0.00 | 0.00 | 0.00 | 70 | 1017.5 |
| 20260505015703 | 18 | 194 | 0.0 | 3.2 | 0.00 | 0.00 | 0.00 | 71 | 1017.5 |
| 20260505015603 | 18 | 217 | 0.0 | 3.2 | 0.00 | 0.00 | 0.00 | 70 | 1017.5 |
| 20260505015503 | 18 | 96 | 0.0 | 3.2 | 0.00 | 0.00 | 0.00 | 71 | 1017.5 |
| 20260505015403 | 18 | 186 | 0.0 | 8.0 | 0.00 | 0.00 | 0.00 | 71 | 1017.5 |
| 20260505015304 | 18 | 78 | 1.6 | 8.0 | 0.00 | 0.00 | 0.00 | 71 | 1017.5 |
| 20260505015203 | 18 | 103 | 0.0 | 8.0 | 0.00 | 0.00 | 0.00 | 70 | 1017.5 |
| 20260505015103 | 18 | 176 | 0.0 | 8.0 | 0.00 | 0.00 | 0.00 | 71 | 1017.5 |
| 20260505015003 | 18 | 243 | 0.0 | 8.0 | 0.00 | 0.00 | 0.00 | 71 | 1017.6 |
| 20260505014903 | 18 | 185 | 0.0 | 8.0 | 0.00 | 0.00 | 0.00 | 71 | 1017.5 |
| 20260505014803 | 18 | 144 | 0.0 | 8.0 | 0.00 | 0.00 | 0.00 | 71 | 1017.5 |
| 20260505014603 | 18 | 161 | 8.0 | 8.0 | 0.00 | 0.00 | 0.00 | 71 | 1017.5 |
| 20260505014503 | 18 | 345 | 0.0 | 4.8 | 0.00 | 0.00 | 0.00 | 71 | 1017.4 |
| 20260505014403 | 18 | 37 | 1.6 | 4.8 | 0.00 | 0.00 | 0.00 | 71 | 1017.5 |
| 20260505014303 | 18 | 197 | 0.0 | 4.8 | 0.00 | 0.00 | 0.00 | 71 | 1017.5 |
| 20260505014203 | 18 | 84 | 4.8 | 4.8 | 0.00 | 0.00 | 0.00 | 71 | 1017.4 |
| 20260505014103 | 18 | 55 | 0.0 | 4.8 | 0.00 | 0.00 | 0.00 | 71 | 1017.4 |
| 20260505014003 | 18 | 162 | 1.6 | 3.2 | 0.00 | 0.00 | 0.00 | 70 | 1017.4 |
| 20260505013903 | 18 | 46 | 1.6 | 3.2 | 0.00 | 0.00 | 0.00 | 70 | 1017.4 |
| 20260505013803 | 18 | 112 | 0.0 | 3.2 | 0.00 | 0.00 | 0.00 | 70 | 1017.4 |
| 20260505013703 | 18 | 86 | 1.6 | 3.2 | 0.00 | 0.00 | 0.00 | 70 | 1017.3 |
| 20260505013603 | 18 | 181 | 0.0 | 3.2 | 0.00 | 0.00 | 0.00 | 70 | 1017.2 |
| 20260505013503 | 18 | 112 | 0.0 | 3.2 | 0.00 | 0.00 | 0.00 | 70 | 1017.3 |
| 20260505013403 | 18 | 110 | 0.0 | 3.2 | 0.00 | 0.00 | 0.00 | 70 | 1017.3 |
| 20260505013203 | 18 | 6 | 0.0 | 4.8 | 0.00 | 0.00 | 0.00 | 70 | 1017.3 |
| 20260505013103 | 18 | 189 | 0.0 | 4.8 | 0.00 | 0.00 | 0.00 | 70 | 1017.2 |
| 20260505013003 | 18 | 79 | 1.6 | 4.8 | 0.00 | 0.00 | 0.00 | 69 | 1017.3 |
| 20260505012903 | 18 | 98 | 1.6 | 4.8 | 0.00 | 0.00 | 0.00 | 69 | 1017.3 |
| 20260505012803 | 18 | 110 | 0.0 | 4.8 | 0.00 | 0.00 | 0.00 | 69 | 1017.2 |
| 20260505012703 | 18 | 174 | 0.0 | 4.8 | 0.00 | 0.00 | 0.00 | 69 | 1017.3 |
| 20260505012603 | 18 | 124 | 0.0 | 8.0 | 0.00 | 0.00 | 0.00 | 69 | 1017.2 |
| 20260505012504 | 18 | 116 | 3.2 | 8.0 | 0.00 | 0.00 | 0.00 | 69 | 1017.2 |
| 20260505012403 | 18 | 117 | 0.0 | 8.0 | 0.00 | 0.00 | 0.00 | 69 | 1017.1 |
| 20260505012304 | 18 | 108 | 0.0 | 8.0 | 0.00 | 0.00 | 0.00 | 68 | 1017.1 |
| 20260505012103 | 18 | 158 | 0.0 | 8.0 | 0.00 | 0.00 | 0.00 | 68 | 1017.2 |
| 20260505011903 | 18 | 105 | 1.6 | 8.0 | 0.00 | 0.00 | 0.00 | 68 | 1017.1 |
| 20260505011803 | 18 | 134 | 3.2 | 8.0 | 0.00 | 0.00 | 0.00 | 69 | 1017.0 |
| 20260505011703 | 18 | 178 | 0.0 | 6.4 | 0.00 | 0.00 | 0.00 | 69 | 1017.0 |
| 20260505011603 | 18 | 177 | 0.0 | 6.4 | 0.00 | 0.00 | 0.00 | 69 | 1017.0 |
| 20260505011505 | 18 | 181 | 0.0 | 6.4 | 0.00 | 0.00 | 0.00 | 69 | 1017.1 |
| 20260505011403 | 18 | 188 | 0.0 | 6.4 | 0.00 | 0.00 | 0.00 | 69 | 1017.0 |
| 20260505011303 | 18 | 162 | 0.0 | 6.4 | 0.00 | 0.00 | 0.00 | 69 | 1017.1 |
| 20260505011204 | 18 | 245 | 0.0 | 6.4 | 0.00 | 0.00 | 0.00 | 69 | 1017.0 |
| 20260505011103 | 18 | 124 | 0.0 | 6.4 | 0.00 | 0.00 | 0.00 | 69 | 1017.0 |
| 20260505011003 | 18 | 94 | 0.0 | 6.4 | 0.00 | 0.00 | 0.00 | 69 | 1017.0 |
| 20260505010903 | 18 | 109 | 0.0 | 9.7 | 0.00 | 0.00 | 0.00 | 68 | 1017.0 |
| 20260505010703 | 18 | 165 | 0.0 | 9.7 | 0.00 | 0.00 | 0.00 | 68 | 1016.9 |
| 20260505010203 | 18 | 182 | 0.0 | 9.7 | 0.00 | 0.00 | 0.00 | 68 | 1016.9 |
| 20260505010103 | 18 | 105 | 6.4 | 9.7 | 0.00 | 0.00 | 0.00 | 68 | 1016.9 |
| 20260505005902 | 18 | 37 | 1.6 | 6.4 | 0.00 | 0.00 | 0.00 | 68 | 1016.9 |
| 20260505005802 | 18 | 121 | 1.6 | 6.4 | 0.00 | 0.00 | 0.00 | 68 | 1016.9 |
| 20260505005702 | 18 | 183 | 0.0 | 6.4 | 0.00 | 0.00 | 0.00 | 67 | 1016.9 |
| 20260505005602 | 18 | 37 | 1.6 | 6.4 | 0.00 | 0.00 | 0.00 | 67 | 1016.9 |
| 20260505005502 | 18 | 143 | 0.0 | 6.4 | 0.00 | 0.00 | 0.00 | 67 | 1016.9 |
| 20260505005402 | 18 | 224 | 0.0 | 6.4 | 0.00 | 0.00 | 0.00 | 67 | 1016.9 |
| 20260505005303 | 18 | 176 | 3.2 | 6.4 | 0.00 | 0.00 | 0.00 | 67 | 1016.8 |
| 20260505005202 | 18 | 210 | 0.0 | 4.8 | 0.00 | 0.00 | 0.00 | 67 | 1016.8 |
| 20260505005102 | 18 | 131 | 0.0 | 4.8 | 0.00 | 0.00 | 0.00 | 67 | 1016.8 |
| 20260505005002 | 18 | 101 | 0.0 | 6.4 | 0.00 | 0.00 | 0.00 | 67 | 1016.7 |
| 20260505004902 | 18 | 160 | 0.0 | 6.4 | 0.00 | 0.00 | 0.00 | 67 | 1016.8 |
| 20260505004802 | 18 | 95 | 0.0 | 6.4 | 0.00 | 0.00 | 0.00 | 67 | 1016.8 |
| 20260505004702 | 18 | 167 | 0.0 | 6.4 | 0.00 | 0.00 | 0.00 | 68 | 1016.9 |
| 20260505004602 | 18 | 239 | 1.6 | 6.4 | 0.00 | 0.00 | 0.00 | 68 | 1016.7 |
| 20260505004502 | 18 | 87 | 0.0 | 6.4 | 0.00 | 0.00 | 0.00 | 68 | 1016.8 |
| 20260505004202 | 18 | 173 | 1.6 | 6.4 | 0.00 | 0.00 | 0.00 | 68 | 1016.7 |
| 20260505004102 | 18 | 167 | 0.0 | 6.4 | 0.00 | 0.00 | 0.00 | 68 | 1016.6 |
| 20260505004002 | 18 | 167 | 0.0 | 6.4 | 0.00 | 0.00 | 0.00 | 68 | 1016.6 |
| 20260505003902 | 18 | 102 | 1.6 | 6.4 | 0.00 | 0.00 | 0.00 | 67 | 1016.7 |
| 20260505003802 | 18 | 112 | 0.0 | 6.4 | 0.00 | 0.00 | 0.00 | 68 | 1016.7 |
| 20260505003702 | 18 | 110 | 0.0 | 6.4 | 0.00 | 0.00 | 0.00 | 67 | 1016.7 |
| 20260505003602 | 18 | 219 | 0.0 | 6.4 | 0.00 | 0.00 | 0.00 | 67 | 1016.6 |
| 20260505003402 | 18 | 217 | 1.6 | 6.4 | 0.00 | 0.00 | 0.00 | 67 | 1016.8 |
| 20260505003302 | 18 | 138 | 1.6 | 6.4 | 0.00 | 0.00 | 0.00 | 67 | 1016.7 |
| 20260505003202 | 19 | 341 | 0.0 | 4.8 | 0.00 | 0.00 | 0.00 | 67 | 1016.7 |
| 20260505003102 | 18 | 114 | 0.0 | 4.8 | 0.00 | 0.00 | 0.00 | 67 | 1016.6 |
| 20260505002902 | 19 | 167 | 0.0 | 4.8 | 0.00 | 0.00 | 0.00 | 66 | 1016.6 |
| 20260505002802 | 19 | 167 | 0.0 | 4.8 | 0.00 | 0.00 | 0.00 | 66 | 1016.8 |
| 20260505002602 | 19 | 157 | 3.2 | 4.8 | 0.00 | 0.00 | 0.00 | 67 | 1016.7 |
| 20260505002502 | 19 | 124 | 0.0 | 4.8 | 0.00 | 0.00 | 0.00 | 67 | 1016.7 |
| 20260505002402 | 19 | 218 | 0.0 | 6.4 | 0.00 | 0.00 | 0.00 | 67 | 1016.7 |
| 20260505002304 | 19 | 185 | 0.0 | 6.4 | 0.00 | 0.00 | 0.00 | 67 | 1016.8 |
| 20260505002202 | 19 | 179 | 1.6 | 6.4 | 0.00 | 0.00 | 0.00 | 67 | 1016.8 |
| 20260505002102 | 19 | 129 | 1.6 | 6.4 | 0.00 | 0.00 | 0.00 | 67 | 1016.8 |
| 20260505002002 | 19 | 191 | 1.6 | 6.4 | 0.00 | 0.00 | 0.00 | 67 | 1016.8 |
| 20260505001802 | 19 | 146 | 0.0 | 6.4 | 0.00 | 0.00 | 0.00 | 67 | 1016.8 |
| 20260505001702 | 19 | 150 | 3.2 | 6.4 | 0.00 | 0.00 | 0.00 | 66 | 1016.9 |
| 20260505001402 | 19 | 159 | 0.0 | 4.8 | 0.00 | 0.00 | 0.00 | 66 | 1016.8 |
| 20260505001302 | 19 | 156 | 0.0 | 6.4 | 0.00 | 0.00 | 0.00 | 66 | 1016.7 |
| 20260505001202 | 19 | 188 | 0.0 | 6.4 | 0.00 | 0.00 | 0.00 | 66 | 1016.8 |
| 20260505001103 | 19 | 151 | 4.8 | 6.4 | 0.00 | 0.00 | 0.00 | 66 | 1016.8 |
| 20260505001003 | 19 | 180 | 3.2 | 6.4 | 0.00 | 0.00 | 0.00 | 65 | 1016.7 |
| 20260505000903 | 19 | 139 | 1.6 | 6.4 | 0.00 | 0.00 | 0.00 | 65 | 1016.7 |
| 20260505000803 | 19 | 179 | 0.0 | 6.4 | 0.00 | 0.00 | 0.00 | 65 | 1016.7 |
| 20260505000703 | 19 | 175 | 1.6 | 6.4 | 0.00 | 0.00 | 0.00 | 65 | 1016.7 |
| 20260505000603 | 19 | 169 | 1.6 | 6.4 | 0.00 | 0.00 | 0.00 | 64 | 1016.7 |
| 20260505000503 | 19 | 122 | 1.6 | 6.4 | 0.00 | 0.00 | 0.00 | 64 | 1016.8 |
| 20260505000405 | 19 | 143 | 3.2 | 4.8 | 0.00 | 0.00 | 0.00 | 64 | 1016.7 |
| 20260505000303 | 19 | 180 | 3.2 | 4.8 | 0.00 | 0.00 | 0.00 | 64 | 1016.8 |
| 20260505000103 | 19 | 173 | 1.6 | 4.8 | 0.00 | 0.00 | 0.00 | 63 | 1016.8 |
| 20260505000006 | 19 | 181 | 1.6 | 4.8 | 0.00 | 0.00 | 0.00 | 63 | 1016.8 |
| 20260504235803 | 19 | 233 | 0.0 | 4.8 | 0.00 | 0.00 | 0.00 | 63 | 1016.7 |
| 20260504235703 | 19 | 162 | 0.0 | 4.8 | 0.00 | 0.00 | 0.00 | 63 | 1016.7 |
| 20260504235503 | 19 | 204 | 3.2 | 4.8 | 0.00 | 0.00 | 0.00 | 63 | 1016.7 |
| 20260504235403 | 19 | 136 | 1.6 | 4.8 | 0.00 | 0.00 | 0.00 | 63 | 1016.6 |
| 20260504235304 | 19 | 183 | 3.2 | 9.7 | 0.00 | 0.00 | 0.00 | 63 | 1016.7 |
| 20260504235203 | 19 | 105 | 0.0 | 9.7 | 0.00 | 0.00 | 0.00 | 63 | 1016.6 |
| 20260504235003 | 19 | 182 | 1.6 | 9.7 | 0.00 | 0.00 | 0.00 | 63 | 1016.6 |
| 20260504234903 | 20 | 224 | 1.6 | 9.7 | 0.00 | 0.00 | 0.00 | 63 | 1016.6 |
| 20260504234803 | 20 | 212 | 3.2 | 9.7 | 0.00 | 0.00 | 0.00 | 62 | 1016.6 |
| 20260504234603 | 20 | 139 | 4.8 | 9.7 | 0.00 | 0.00 | 0.00 | 62 | 1016.5 |
| 20260504234403 | 20 | 165 | 1.6 | 8.0 | 0.00 | 0.00 | 0.00 | 63 | 1016.4 |
| 20260504234303 | 20 | 210 | 1.6 | 8.0 | 0.00 | 0.00 | 0.00 | 62 | 1016.5 |
| 20260504234103 | 20 | 134 | 0.0 | 8.0 | 0.00 | 0.00 | 0.00 | 62 | 1016.5 |
| 20260504234003 | 20 | 205 | 1.6 | 8.0 | 0.00 | 0.00 | 0.00 | 62 | 1016.5 |
| 20260504233903 | 20 | 191 | 0.0 | 12.9 | 0.00 | 0.00 | 0.00 | 62 | 1016.5 |
| 20260504233803 | 20 | 178 | 0.0 | 12.9 | 0.00 | 0.00 | 0.00 | 62 | 1016.6 |
| 20260504233703 | 20 | 191 | 1.6 | 12.9 | 0.00 | 0.00 | 0.00 | 62 | 1016.5 |
| 20260504233603 | 20 | 166 | 0.0 | 12.9 | 0.00 | 0.00 | 0.00 | 62 | 1016.6 |
| 20260504233503 | 20 | 156 | 6.4 | 12.9 | 0.00 | 0.00 | 0.00 | 62 | 1016.5 |
| 20260504233403 | 20 | 178 | 0.0 | 12.9 | 0.00 | 0.00 | 0.00 | 61 | 1016.5 |
| 20260504233303 | 20 | 147 | 1.6 | 12.9 | 0.00 | 0.00 | 0.00 | 61 | 1016.5 |
| 20260504233203 | 20 | 189 | 1.6 | 12.9 | 0.00 | 0.00 | 0.00 | 61 | 1016.5 |
| 20260504233003 | 20 | 147 | 3.2 | 9.7 | 0.00 | 0.00 | 0.00 | 61 | 1016.5 |
| 20260504232903 | 20 | 106 | 3.2 | 9.7 | 0.00 | 0.00 | 0.00 | 61 | 1016.4 |
| 20260504232803 | 20 | 119 | 1.6 | 9.7 | 0.00 | 0.00 | 0.00 | 61 | 1016.5 |
| 20260504232703 | 20 | 188 | 1.6 | 9.7 | 0.00 | 0.00 | 0.00 | 61 | 1016.5 |
| 20260504232503 | 20 | 231 | 1.6 | 8.0 | 0.00 | 0.00 | 0.00 | 61 | 1016.5 |
| 20260504232403 | 20 | 167 | 0.0 | 8.0 | 0.00 | 0.00 | 0.00 | 61 | 1016.5 |
| 20260504232304 | 20 | 124 | 0.0 | 8.0 | 0.00 | 0.00 | 0.00 | 61 | 1016.4 |
| 20260504232203 | 20 | 142 | 1.6 | 8.0 | 0.00 | 0.00 | 0.00 | 61 | 1016.5 |
| 20260504232103 | 20 | 163 | 1.6 | 8.0 | 0.00 | 0.00 | 0.00 | 60 | 1016.5 |
| 20260504232003 | 20 | 191 | 1.6 | 8.0 | 0.00 | 0.00 | 0.00 | 60 | 1016.5 |
| 20260504231904 | 20 | 113 | 6.4 | 8.0 | 0.00 | 0.00 | 0.00 | 60 | 1016.5 |
| 20260504231803 | 20 | 179 | 1.6 | 8.0 | 0.00 | 0.00 | 0.00 | 60 | 1016.5 |
| 20260504231703 | 20 | 210 | 1.6 | 11.3 | 0.00 | 0.00 | 0.00 | 61 | 1016.5 |
| 20260504231203 | 20 | 167 | 0.0 | 11.3 | 0.00 | 0.00 | 0.00 | 61 | 1016.3 |
| 20260504231103 | 20 | 148 | 6.4 | 11.3 | 0.00 | 0.00 | 0.00 | 60 | 1016.4 |
| 20260504231003 | 20 | 174 | 1.6 | 11.3 | 0.00 | 0.00 | 0.00 | 60 | 1016.4 |
| 20260504230903 | 20 | 130 | 6.4 | 11.3 | 0.00 | 0.00 | 0.00 | 60 | 1016.4 |
| 20260504230803 | 20 | 128 | 1.6 | 11.3 | 0.00 | 0.00 | 0.00 | 59 | 1016.4 |
| 20260504230703 | 21 | 202 | 4.8 | 11.3 | 0.00 | 0.00 | 0.00 | 59 | 1016.4 |
| 20260504230503 | 21 | 215 | 1.6 | 9.7 | 0.00 | 0.00 | 0.00 | 59 | 1016.5 |
| 20260504230403 | 21 | 90 | 0.0 | 9.7 | 0.00 | 0.00 | 0.00 | 59 | 1016.4 |
| 20260504230303 | 21 | 160 | 4.8 | 9.7 | 0.00 | 0.00 | 0.00 | 59 | 1016.4 |
| 20260504230203 | 21 | 179 | 1.6 | 12.9 | 0.00 | 0.00 | 0.00 | 59 | 1016.4 |
| 20260504230005 | 21 | 199 | 4.8 | 12.9 | 0.00 | 0.00 | 0.00 | 59 | 1016.4 |
| 20260504225903 | 21 | 140 | 4.8 | 12.9 | 0.00 | 0.00 | 0.00 | 58 | 1016.4 |
| 20260504225804 | 21 | 126 | 3.2 | 12.9 | 0.00 | 0.00 | 0.00 | 59 | 1016.5 |
| 20260504225703 | 21 | 166 | 1.6 | 12.9 | 0.00 | 0.00 | 0.00 | 59 | 1016.4 |
| 20260504225603 | 21 | 145 | 0.0 | 12.9 | 0.00 | 0.00 | 0.00 | 59 | 1016.4 |
| 20260504225503 | 21 | 113 | 3.2 | 12.9 | 0.00 | 0.00 | 0.00 | 58 | 1016.4 |
| 20260504225403 | 21 | 86 | 4.8 | 12.9 | 0.00 | 0.00 | 0.00 | 57 | 1016.5 |
| 20260504225304 | 21 | 210 | 6.4 | 12.9 | 0.00 | 0.00 | 0.00 | 57 | 1016.4 |
| 20260504225203 | 21 | 106 | 4.8 | 9.7 | 0.00 | 0.00 | 0.00 | 57 | 1016.5 |
| 20260504225103 | 21 | 153 | 3.2 | 9.7 | 0.00 | 0.00 | 0.00 | 57 | 1016.4 |
| 20260504225003 | 21 | 167 | 3.2 | 9.7 | 0.00 | 0.00 | 0.00 | 57 | 1016.5 |
| 20260504224903 | 21 | 145 | 4.8 | 9.7 | 0.00 | 0.00 | 0.00 | 57 | 1016.5 |
| 20260504224803 | 21 | 209 | 1.6 | 20.9 | 0.00 | 0.00 | 0.00 | 57 | 1016.5 |
| 20260504224703 | 21 | 71 | 3.2 | 20.9 | 0.00 | 0.00 | 0.00 | 56 | 1016.5 |
| 20260504224603 | 21 | 187 | 6.4 | 20.9 | 0.00 | 0.00 | 0.00 | 56 | 1016.5 |
| 20260504224503 | 21 | 152 | 0.0 | 20.9 | 0.00 | 0.00 | 0.00 | 56 | 1016.5 |
| 20260504224403 | 21 | 197 | 1.6 | 20.9 | 0.00 | 0.00 | 0.00 | 56 | 1016.6 |
| 20260504224303 | 21 | 186 | 3.2 | 20.9 | 0.00 | 0.00 | 0.00 | 56 | 1016.6 |
| 20260504224204 | 21 | 163 | 1.6 | 20.9 | 0.00 | 0.00 | 0.00 | 55 | 1016.5 |
| 20260504224103 | 21 | 106 | 1.6 | 20.9 | 0.00 | 0.00 | 0.00 | 55 | 1016.4 |
| 20260504224003 | 21 | 108 | 12.9 | 14.5 | 0.00 | 0.00 | 0.00 | 55 | 1016.4 |
| 20260504223803 | 21 | 191 | 3.2 | 14.5 | 0.00 | 0.00 | 0.00 | 56 | 1016.4 |
| 20260504223703 | 21 | 200 | 4.8 | 14.5 | 0.00 | 0.00 | 0.00 | 56 | 1016.4 |
| 20260504223603 | 21 | 196 | 4.8 | 14.5 | 0.00 | 0.00 | 0.00 | 56 | 1016.4 |
| 20260504223503 | 21 | 190 | 4.8 | 14.5 | 0.00 | 0.00 | 0.00 | 56 | 1016.4 |
| 20260504223403 | 21 | 200 | 6.4 | 14.5 | 0.00 | 0.00 | 0.00 | 55 | 1016.5 |
| 20260504223304 | 21 | 175 | 6.4 | 17.7 | 0.00 | 0.00 | 0.00 | 55 | 1016.4 |
| 20260504223203 | 21 | 150 | 1.6 | 17.7 | 0.00 | 0.00 | 0.00 | 55 | 1016.5 |
| 20260504223103 | 21 | 177 | 3.2 | 17.7 | 0.00 | 0.00 | 0.00 | 56 | 1016.5 |
| 20260504223003 | 21 | 118 | 6.4 | 17.7 | 0.00 | 0.00 | 0.00 | 56 | 1016.5 |
| 20260504222903 | 21 | 236 | 11.3 | 17.7 | 0.00 | 0.00 | 0.00 | 56 | 1016.4 |
| 20260504222803 | 21 | 153 | 0.0 | 17.7 | 0.00 | 0.00 | 0.00 | 56 | 1016.4 |
| 20260504222703 | 21 | 148 | 3.2 | 17.7 | 0.00 | 0.00 | 0.00 | 56 | 1016.4 |
| 20260504222503 | 21 | 135 | 1.6 | 17.7 | 0.00 | 0.00 | 0.00 | 56 | 1016.3 |
| 20260504222403 | 21 | 102 | 6.4 | 14.5 | 0.00 | 0.00 | 0.00 | 56 | 1016.4 |
| 20260504222305 | 21 | 209 | 3.2 | 14.5 | 0.00 | 0.00 | 0.00 | 57 | 1016.4 |
| 20260504222203 | 21 | 179 | 4.8 | 14.5 | 0.00 | 0.00 | 0.00 | 57 | 1016.4 |
| 20260504222003 | 21 | 140 | 8.0 | 14.5 | 0.00 | 0.00 | 0.00 | 57 | 1016.3 |
| 20260504221803 | 21 | 186 | 9.7 | 14.5 | 0.00 | 0.00 | 0.00 | 57 | 1016.4 |
| 20260504221703 | 21 | 358 | 0.0 | 14.5 | 0.00 | 0.00 | 0.00 | 57 | 1016.4 |
| 20260504221603 | 21 | 111 | 9.7 | 14.5 | 0.00 | 0.00 | 0.00 | 57 | 1016.3 |
| 20260504221503 | 21 | 206 | 3.2 | 14.5 | 0.00 | 0.00 | 0.00 | 57 | 1016.3 |
| 20260504221403 | 21 | 136 | 14.5 | 14.5 | 0.00 | 0.00 | 0.00 | 57 | 1016.4 |
| 20260504221303 | 21 | 203 | 1.6 | 12.9 | 0.00 | 0.00 | 0.00 | 57 | 1016.4 |
| 20260504221203 | 21 | 160 | 4.8 | 12.9 | 0.00 | 0.00 | 0.00 | 56 | 1016.4 |
| 20260504221103 | 21 | 163 | 6.4 | 12.9 | 0.00 | 0.00 | 0.00 | 56 | 1016.4 |
| 20260504221004 | 22 | 106 | 9.7 | 12.9 | 0.00 | 0.00 | 0.00 | 57 | 1016.4 |
| 20260504220903 | 22 | 145 | 6.4 | 12.9 | 0.00 | 0.00 | 0.00 | 57 | 1016.4 |
| 20260504220803 | 22 | 183 | 4.8 | 14.5 | 0.00 | 0.00 | 0.00 | 57 | 1016.4 |
| 20260504220703 | 22 | 196 | 12.9 | 14.5 | 0.00 | 0.00 | 0.00 | 58 | 1016.4 |
| 20260504220603 | 22 | 149 | 6.4 | 14.5 | 0.00 | 0.00 | 0.00 | 57 | 1016.3 |
| 20260504220503 | 22 | 155 | 3.2 | 14.5 | 0.00 | 0.00 | 0.00 | 57 | 1016.3 |
| 20260504220403 | 22 | 200 | 4.8 | 14.5 | 0.00 | 0.00 | 0.00 | 58 | 1016.4 |
| 20260504220303 | 22 | 160 | 6.4 | 14.5 | 0.00 | 0.00 | 0.00 | 57 | 1016.5 |
| 20260504220203 | 22 | 262 | 4.8 | 14.5 | 0.00 | 0.00 | 0.00 | 57 | 1016.4 |
| 20260504220006 | 22 | 135 | 1.6 | 14.5 | 0.00 | 0.00 | 0.00 | 57 | 1016.5 |
| 20260504215903 | 22 | 215 | 3.2 | 11.3 | 0.00 | 0.00 | 0.00 | 57 | 1016.5 |
| 20260504215803 | 22 | 94 | 3.2 | 11.3 | 0.00 | 0.00 | 0.00 | 58 | 1016.5 |
| 20260504215703 | 22 | 86 | 1.6 | 11.3 | 0.00 | 0.00 | 0.00 | 57 | 1016.5 |
| 20260504215603 | 22 | 202 | 1.6 | 11.3 | 0.00 | 0.00 | 0.00 | 57 | 1016.5 |
| 20260504215403 | 22 | 179 | 3.2 | 12.9 | 0.00 | 0.00 | 0.00 | 58 | 1016.5 |
| 20260504215304 | 22 | 172 | 0.0 | 12.9 | 0.00 | 0.00 | 0.00 | 57 | 1016.4 |
| 20260504215203 | 22 | 212 | 0.0 | 12.9 | 0.00 | 0.00 | 0.00 | 57 | 1016.4 |
| 20260504215103 | 22 | 191 | 4.8 | 12.9 | 0.00 | 0.00 | 0.00 | 57 | 1016.6 |
| 20260504214903 | 22 | 166 | 8.0 | 12.9 | 0.00 | 0.00 | 0.00 | 56 | 1016.5 |
| 20260504214803 | 22 | 203 | 3.2 | 12.9 | 0.00 | 0.00 | 0.00 | 57 | 1016.4 |
| 20260504214703 | 22 | 162 | 6.4 | 16.1 | 0.00 | 0.00 | 0.00 | 57 | 1016.4 |
| 20260504214603 | 22 | 149 | 4.8 | 16.1 | 0.00 | 0.00 | 0.00 | 57 | 1016.4 |
| 20260504214503 | 22 | 129 | 6.4 | 17.7 | 0.00 | 0.00 | 0.00 | 57 | 1016.4 |
| 20260504214403 | 22 | 191 | 9.7 | 17.7 | 0.00 | 0.00 | 0.00 | 56 | 1016.3 |
| 20260504214303 | 22 | 179 | 1.6 | 17.7 | 0.00 | 0.00 | 0.00 | 57 | 1016.4 |
| 20260504214103 | 22 | 214 | 3.2 | 17.7 | 0.00 | 0.00 | 0.00 | 56 | 1016.3 |
| 20260504214003 | 22 | 94 | 6.4 | 17.7 | 0.00 | 0.00 | 0.00 | 55 | 1016.4 |
| 20260504213803 | 22 | 203 | 6.4 | 17.7 | 0.00 | 0.00 | 0.00 | 55 | 1016.5 |
| 20260504213703 | 22 | 221 | 1.6 | 17.7 | 0.00 | 0.00 | 0.00 | 55 | 1016.4 |
| 20260504213603 | 22 | 180 | 1.6 | 12.9 | 0.00 | 0.00 | 0.00 | 56 | 1016.5 |
| 20260504213504 | 22 | 105 | 1.6 | 12.9 | 0.00 | 0.00 | 0.00 | 55 | 1016.6 |
| 20260504213403 | 22 | 194 | 4.8 | 12.9 | 0.00 | 0.00 | 0.00 | 56 | 1016.5 |
| 20260504213303 | 22 | 131 | 4.8 | 12.9 | 0.00 | 0.00 | 0.00 | 56 | 1016.6 |
| 20260504213103 | 22 | 172 | 4.8 | 12.9 | 0.00 | 0.00 | 0.00 | 56 | 1016.7 |
| 20260504213003 | 22 | 177 | 1.6 | 12.9 | 0.00 | 0.00 | 0.00 | 56 | 1016.6 |
| 20260504212903 | 22 | 155 | 3.2 | 12.9 | 0.00 | 0.00 | 0.00 | 55 | 1016.6 |
| 20260504212803 | 22 | 75 | 4.8 | 12.9 | 0.00 | 0.00 | 0.00 | 55 | 1016.6 |
| 20260504212703 | 22 | 101 | 4.8 | 14.5 | 0.00 | 0.00 | 0.00 | 55 | 1016.7 |
| 20260504212603 | 22 | 241 | 1.6 | 14.5 | 0.00 | 0.00 | 0.00 | 55 | 1016.7 |
| 20260504212304 | 22 | 164 | 8.0 | 14.5 | 0.00 | 0.00 | 0.00 | 54 | 1016.6 |
| 20260504212203 | 22 | 144 | 3.2 | 14.5 | 0.00 | 0.00 | 0.00 | 54 | 1016.6 |
| 20260504212003 | 22 | 259 | 6.4 | 16.1 | 0.00 | 0.00 | 0.00 | 54 | 1016.6 |
| 20260504211803 | 22 | 146 | 4.8 | 16.1 | 0.00 | 0.00 | 0.00 | 54 | 1016.6 |
| 20260504211703 | 22 | 214 | 9.7 | 16.1 | 0.00 | 0.00 | 0.00 | 54 | 1016.6 |
| 20260504211603 | 22 | 191 | 1.6 | 16.1 | 0.00 | 0.00 | 0.00 | 54 | 1016.6 |
| 20260504211503 | 22 | 221 | 8.0 | 16.1 | 0.00 | 0.00 | 0.00 | 54 | 1016.5 |
| 20260504211403 | 22 | 109 | 1.6 | 16.1 | 0.00 | 0.00 | 0.00 | 53 | 1016.5 |
| 20260504211203 | 22 | 117 | 4.8 | 16.1 | 0.00 | 0.00 | 0.00 | 54 | 1016.5 |
| 20260504211103 | 22 | 203 | 3.2 | 14.5 | 0.00 | 0.00 | 0.00 | 53 | 1016.5 |
| 20260504211003 | 22 | 96 | 3.2 | 14.5 | 0.00 | 0.00 | 0.00 | 53 | 1016.6 |
| 20260504210902 | 22 | 184 | 1.6 | 14.5 | 0.00 | 0.00 | 0.00 | 52 | 1016.6 |
| 20260504210803 | 22 | 126 | 3.2 | 14.5 | 0.00 | 0.00 | 0.00 | 52 | 1016.6 |
| 20260504210603 | 22 | 150 | 3.2 | 16.1 | 0.00 | 0.00 | 0.00 | 53 | 1016.6 |
| 20260504210503 | 22 | 100 | 3.2 | 16.1 | 0.00 | 0.00 | 0.00 | 53 | 1016.8 |
| 20260504210403 | 22 | 6 | 4.8 | 16.1 | 0.00 | 0.00 | 0.00 | 52 | 1016.6 |
| 20260504210203 | 22 | 216 | 1.6 | 16.1 | 0.00 | 0.00 | 0.00 | 53 | 1016.6 |
| 20260504210006 | 22 | 170 | 6.4 | 16.1 | 0.00 | 0.00 | 0.00 | 53 | 1016.6 |
| 20260504205903 | 22 | 240 | 1.6 | 14.5 | 0.00 | 0.00 | 0.00 | 54 | 1016.7 |
| 20260504205803 | 22 | 193 | 3.2 | 14.5 | 0.00 | 0.00 | 0.00 | 54 | 1016.6 |
| 20260504205703 | 22 | 179 | 4.8 | 14.5 | 0.00 | 0.00 | 0.00 | 54 | 1016.7 |
| 20260504205503 | 22 | 161 | 1.6 | 14.5 | 0.00 | 0.00 | 0.00 | 52 | 1016.7 |
| 20260504205403 | 22 | 203 | 3.2 | 14.5 | 0.00 | 0.00 | 0.00 | 53 | 1016.6 |
| 20260504205304 | 22 | 184 | 14.5 | 14.5 | 0.00 | 0.00 | 0.00 | 54 | 1016.7 |
| 20260504205103 | 22 | 250 | 6.4 | 12.9 | 0.00 | 0.00 | 0.00 | 56 | 1016.6 |
| 20260504205003 | 22 | 172 | 1.6 | 12.9 | 0.00 | 0.00 | 0.00 | 55 | 1016.6 |
| 20260504204903 | 22 | 120 | 3.2 | 12.9 | 0.00 | 0.00 | 0.00 | 55 | 1016.6 |
| 20260504204803 | 22 | 171 | 1.6 | 12.9 | 0.00 | 0.00 | 0.00 | 54 | 1016.6 |
| 20260504204703 | 22 | 167 | 4.8 | 12.9 | 0.00 | 0.00 | 0.00 | 54 | 1016.6 |
| 20260504204603 | 22 | 121 | 3.2 | 12.9 | 0.00 | 0.00 | 0.00 | 54 | 1016.6 |
| 20260504204304 | 22 | 141 | 9.7 | 11.3 | 0.00 | 0.00 | 0.00 | 53 | 1016.7 |
| 20260504204103 | 22 | 148 | 3.2 | 16.1 | 0.00 | 0.00 | 0.00 | 53 | 1016.6 |
| 20260504203803 | 22 | 199 | 1.6 | 16.1 | 0.00 | 0.00 | 0.00 | 53 | 1016.6 |
| 20260504203603 | 22 | 240 | 6.4 | 17.7 | 0.00 | 0.00 | 0.00 | 54 | 1016.6 |
| 20260504203503 | 22 | 213 | 4.8 | 17.7 | 0.00 | 0.00 | 0.00 | 54 | 1016.6 |
| 20260504203403 | 22 | 105 | 6.4 | 17.7 | 0.00 | 0.00 | 0.00 | 54 | 1016.6 |
| 20260504203303 | 22 | 155 | 4.8 | 17.7 | 0.00 | 0.00 | 0.00 | 56 | 1016.6 |
| 20260504203203 | 22 | 109 | 12.9 | 20.9 | 0.00 | 0.00 | 0.00 | 57 | 1016.5 |
| 20260504203103 | 22 | 207 | 1.6 | 20.9 | 0.00 | 0.00 | 0.00 | 56 | 1016.5 |
| 20260504203004 | 22 | 212 | 3.2 | 20.9 | 0.00 | 0.00 | 0.00 | 55 | 1016.6 |
| 20260504202903 | 22 | 179 | 6.4 | 20.9 | 0.00 | 0.00 | 0.00 | 55 | 1016.7 |
| 20260504202803 | 22 | 122 | 3.2 | 20.9 | 0.00 | 0.00 | 0.00 | 54 | 1016.5 |
| 20260504202602 | 22 | 142 | 6.4 | 20.9 | 0.00 | 0.00 | 0.00 | 53 | 1016.7 |
| 20260504202403 | 22 | 207 | 3.2 | 20.9 | 0.00 | 0.00 | 0.00 | 54 | 1016.7 |
| 20260504202304 | 22 | 150 | 9.7 | 17.7 | 0.00 | 0.00 | 0.00 | 54 | 1016.8 |
| 20260504202203 | 22 | 178 | 3.2 | 17.7 | 0.00 | 0.00 | 0.00 | 54 | 1016.8 |
| 20260504202103 | 22 | 136 | 6.4 | 17.7 | 0.00 | 0.00 | 0.00 | 54 | 1016.9 |
| 20260504202003 | 22 | 135 | 3.2 | 17.7 | 0.00 | 0.00 | 0.00 | 53 | 1016.8 |
| 20260504201903 | 22 | 184 | 9.7 | 17.7 | 0.00 | 0.00 | 0.00 | 53 | 1016.8 |
| 20260504201803 | 22 | 34 | 4.8 | 17.7 | 0.00 | 0.00 | 0.00 | 54 | 1016.8 |
| 20260504201603 | 22 | 161 | 3.2 | 17.7 | 0.00 | 0.00 | 0.00 | 56 | 1016.8 |
| 20260504201503 | 22 | 165 | 0.0 | 17.7 | 0.00 | 0.00 | 0.00 | 55 | 1016.8 |
| 20260504201402 | 22 | 79 | 9.7 | 17.7 | 0.00 | 0.00 | 0.00 | 55 | 1016.8 |
| 20260504201303 | 22 | 206 | 3.2 | 17.7 | 0.00 | 0.00 | 0.00 | 54 | 1016.8 |
| 20260504201203 | 22 | 91 | 3.2 | 16.1 | 0.00 | 0.00 | 0.00 | 54 | 1016.9 |
| 20260504201103 | 22 | 200 | 4.8 | 16.1 | 0.00 | 0.00 | 0.00 | 53 | 1016.8 |
| 20260504201003 | 22 | 124 | 3.2 | 16.1 | 0.00 | 0.00 | 0.00 | 52 | 1016.8 |
| 20260504200804 | 22 | 169 | 1.6 | 16.1 | 0.00 | 0.00 | 0.00 | 52 | 1016.8 |
| 20260504200503 | 22 | 127 | 6.4 | 14.5 | 0.00 | 0.00 | 0.00 | 53 | 1016.8 |
| 20260504200403 | 22 | 131 | 4.8 | 14.5 | 0.00 | 0.00 | 0.00 | 53 | 1016.9 |
| 20260504200303 | 22 | 170 | 4.8 | 14.5 | 0.00 | 0.00 | 0.00 | 53 | 1016.9 |
| 20260504200203 | 22 | 139 | 4.8 | 16.1 | 0.00 | 0.00 | 0.00 | 52 | 1016.9 |
| 20260504200006 | 22 | 206 | 4.8 | 17.7 | 0.00 | 0.00 | 0.00 | 52 | 1016.9 |
| 20260504195903 | 22 | 172 | 12.9 | 17.7 | 0.00 | 0.00 | 0.00 | 52 | 1016.9 |
| 20260504195803 | 22 | 207 | 9.7 | 17.7 | 0.00 | 0.00 | 0.00 | 54 | 1016.9 |
| 20260504195705 | 22 | 24 | 4.8 | 17.7 | 0.00 | 0.00 | 0.00 | 54 | 1016.9 |
| 20260504195503 | 22 | 51 | 1.6 | 17.7 | 0.00 | 0.00 | 0.00 | 54 | 1017.0 |
| 20260504195403 | 22 | 131 | 9.7 | 17.7 | 0.00 | 0.00 | 0.00 | 54 | 1016.9 |
| 20260504195304 | 22 | 174 | 3.2 | 17.7 | 0.00 | 0.00 | 0.00 | 54 | 1017.0 |
| 20260504195203 | 22 | 142 | 6.4 | 17.7 | 0.00 | 0.00 | 0.00 | 55 | 1017.0 |
| 20260504195104 | 22 | 202 | 6.4 | 16.1 | 0.00 | 0.00 | 0.00 | 54 | 1017.0 |
| 20260504195003 | 22 | 211 | 4.8 | 16.1 | 0.00 | 0.00 | 0.00 | 54 | 1017.1 |
| 20260504194902 | 22 | 152 | 8.0 | 16.1 | 0.00 | 0.00 | 0.00 | 54 | 1017.1 |
| 20260504194803 | 22 | 134 | 9.7 | 16.1 | 0.00 | 0.00 | 0.00 | 54 | 1017.1 |
| 20260504194703 | 22 | 108 | 8.0 | 16.1 | 0.00 | 0.00 | 0.00 | 54 | 1017.1 |
| 20260504194604 | 22 | 198 | 3.2 | 16.1 | 0.00 | 0.00 | 0.00 | 54 | 1017.1 |
| 20260504194504 | 22 | 128 | 1.6 | 16.1 | 0.00 | 0.00 | 0.00 | 52 | 1017.2 |
| 20260504194403 | 22 | 193 | 8.0 | 16.1 | 0.00 | 0.00 | 0.00 | 53 | 1017.3 |
| 20260504194303 | 22 | 161 | 12.9 | 14.5 | 0.00 | 0.00 | 0.00 | 53 | 1017.2 |
| 20260504194203 | 22 | 238 | 6.4 | 14.5 | 0.00 | 0.00 | 0.00 | 52 | 1017.3 |
| 20260504194003 | 23 | 157 | 9.7 | 14.5 | 0.00 | 0.00 | 0.00 | 54 | 1017.3 |
| 20260504193903 | 22 | 243 | 1.6 | 14.5 | 0.00 | 0.00 | 0.00 | 55 | 1017.3 |
| 20260504193803 | 22 | 171 | 1.6 | 14.5 | 0.00 | 0.00 | 0.00 | 54 | 1017.4 |
| 20260504193704 | 22 | 174 | 4.8 | 17.7 | 0.00 | 0.00 | 0.00 | 54 | 1017.3 |
| 20260504193503 | 22 | 46 | 1.6 | 17.7 | 0.00 | 0.00 | 0.00 | 55 | 1017.3 |
| 20260504193403 | 22 | 122 | 3.2 | 17.7 | 0.00 | 0.00 | 0.00 | 55 | 1017.3 |
| 20260504193302 | 22 | 177 | 8.0 | 17.7 | 0.00 | 0.00 | 0.00 | 55 | 1017.4 |
| 20260504193203 | 22 | 110 | 3.2 | 17.7 | 0.00 | 0.00 | 0.00 | 55 | 1017.4 |
| 20260504193103 | 22 | 216 | 3.2 | 20.9 | 0.00 | 0.00 | 0.00 | 54 | 1017.4 |
| 20260504192803 | 22 | 83 | 4.8 | 20.9 | 0.00 | 0.00 | 0.00 | 53 | 1017.5 |
| 20260504192704 | 22 | 195 | 6.4 | 20.9 | 0.00 | 0.00 | 0.00 | 54 | 1017.4 |
| 20260504192503 | 22 | 271 | 3.2 | 20.9 | 0.00 | 0.00 | 0.00 | 55 | 1017.5 |
| 20260504192403 | 23 | 223 | 6.4 | 20.9 | 0.00 | 0.00 | 0.00 | 54 | 1017.5 |
| 20260504192304 | 23 | 237 | 8.0 | 20.9 | 0.00 | 0.00 | 0.00 | 55 | 1017.4 |
| 20260504192203 | 22 | 69 | 1.6 | 16.1 | 0.00 | 0.00 | 0.00 | 54 | 1017.5 |
| 20260504192103 | 22 | 206 | 3.2 | 16.1 | 0.00 | 0.00 | 0.00 | 55 | 1017.5 |
| 20260504192003 | 22 | 224 | 4.8 | 16.1 | 0.00 | 0.00 | 0.00 | 55 | 1017.5 |
| 20260504191904 | 22 | 229 | 6.4 | 16.1 | 0.00 | 0.00 | 0.00 | 55 | 1017.5 |
| 20260504191803 | 22 | 172 | 1.6 | 16.1 | 0.00 | 0.00 | 0.00 | 53 | 1017.5 |
| 20260504191703 | 22 | 120 | 9.7 | 16.1 | 0.00 | 0.00 | 0.00 | 54 | 1017.6 |
| 20260504191504 | 22 | 143 | 4.8 | 16.1 | 0.00 | 0.00 | 0.00 | 54 | 1017.7 |
| 20260504191402 | 22 | 200 | 9.7 | 16.1 | 0.00 | 0.00 | 0.00 | 54 | 1017.6 |
| 20260504191303 | 22 | 97 | 4.8 | 16.1 | 0.00 | 0.00 | 0.00 | 54 | 1017.6 |
| 20260504191204 | 22 | 203 | 4.8 | 16.1 | 0.00 | 0.00 | 0.00 | 54 | 1017.6 |
| 20260504191104 | 22 | 142 | 4.8 | 16.1 | 0.00 | 0.00 | 0.00 | 53 | 1017.6 |
| 20260504191004 | 23 | 241 | 9.7 | 16.1 | 0.00 | 0.00 | 0.00 | 53 | 1017.6 |
| 20260504190903 | 23 | 139 | 6.4 | 16.1 | 0.00 | 0.00 | 0.00 | 53 | 1017.6 |
| 20260504190803 | 23 | 117 | 16.1 | 19.3 | 0.00 | 0.00 | 0.00 | 54 | 1017.7 |
| 20260504190703 | 23 | 201 | 8.0 | 19.3 | 0.00 | 0.00 | 0.00 | 53 | 1017.7 |
| 20260504190603 | 23 | 158 | 3.2 | 19.3 | 0.00 | 0.00 | 0.00 | 53 | 1017.8 |
| 20260504190503 | 23 | 159 | 8.0 | 19.3 | 0.00 | 0.00 | 0.00 | 53 | 1017.8 |
| 20260504190403 | 23 | 131 | 8.0 | 19.3 | 0.00 | 0.00 | 0.00 | 54 | 1017.8 |
| 20260504190303 | 23 | 117 | 3.2 | 19.3 | 0.00 | 0.00 | 0.00 | 55 | 1017.7 |
| 20260504190203 | 23 | 183 | 0.0 | 19.3 | 0.00 | 0.00 | 0.00 | 54 | 1017.7 |
| 20260504190005 | 23 | 155 | 4.8 | 19.3 | 0.00 | 0.00 | 0.00 | 54 | 1017.7 |
| 20260504185902 | 23 | 198 | 1.6 | 16.1 | 0.00 | 0.00 | 0.00 | 55 | 1017.7 |
| 20260504185803 | 23 | 198 | 3.2 | 16.1 | 0.00 | 0.00 | 0.00 | 55 | 1017.7 |
| 20260504185502 | 23 | 177 | 1.6 | 16.1 | 0.00 | 0.00 | 0.00 | 54 | 1017.8 |
| 20260504185403 | 23 | 192 | 4.8 | 16.1 | 0.00 | 0.00 | 0.00 | 54 | 1017.7 |
| 20260504185304 | 23 | 203 | 4.8 | 16.1 | 0.00 | 0.00 | 0.00 | 54 | 1017.6 |
| 20260504185203 | 23 | 100 | 3.2 | 16.1 | 0.00 | 0.00 | 0.00 | 54 | 1017.8 |
| 20260504185104 | 23 | 312 | 3.2 | 16.1 | 0.00 | 0.00 | 0.00 | 53 | 1017.8 |
| 20260504185003 | 23 | 137 | 4.8 | 16.1 | 0.00 | 0.00 | 0.00 | 52 | 1017.8 |
| 20260504184903 | 23 | 129 | 11.3 | 16.1 | 0.00 | 0.00 | 0.00 | 53 | 1017.8 |
| 20260504184803 | 23 | 100 | 4.8 | 16.1 | 0.00 | 0.00 | 0.00 | 54 | 1017.8 |
| 20260504184702 | 23 | 230 | 4.8 | 16.1 | 0.00 | 0.00 | 0.00 | 54 | 1017.8 |
| 20260504184603 | 23 | 169 | 4.8 | 17.7 | 0.00 | 0.00 | 0.00 | 54 | 1017.8 |
| 20260504184502 | 23 | 219 | 3.2 | 17.7 | 0.00 | 0.00 | 0.00 | 55 | 1017.8 |
| 20260504184403 | 23 | 239 | 0.0 | 17.7 | 0.00 | 0.00 | 0.00 | 54 | 1017.9 |
| 20260504184302 | 23 | 137 | 4.8 | 17.7 | 0.00 | 0.00 | 0.00 | 53 | 1017.9 |